[討論] [Vtub] Hololive 日間直播單(1100613)

看板 C_Chat
作者
時間
留言 1485則留言,270人參與討論
推噓 812  ( 812推 0噓 673→ )
資料來源:https://schedule.hololive.tv/ 本日日間預定實況一覽 08:00 Gura 緋紅結繫 https://www.youtube.com/watch?v=xxspLx0GcOw
09:00 天音かなた 魔物獵人:崛起 https://www.youtube.com/watch?v=Ga2KFMAfaS8
白銀ノエル 勇者鬥惡龍 XI S https://www.youtube.com/watch?v=P2lbTWEHIvI
夕刻ロベル https://www.youtube.com/watch?v=QN48rmu1-9w
10:00 森美聲 闇影詩章 https://www.youtube.com/watch?v=TZ7jo7ceoC8
12:00 大空スバル 勇者鬥惡龍Ⅷ https://www.youtube.com/watch?v=zwSPBv7W2HI
Reine、尾丸ポルカ 印尼語教習班 https://www.youtube.com/watch?v=JjHTGgQDzyE
兎田ぺこら https://www.youtube.com/watch?v=6YDAk8x9Xz0
12:30 森美聲 感謝雜談 https://www.youtube.com/watch?v=Q0THd99sQ8I
13:00 アルランディス 雜談 https://www.youtube.com/watch?v=Xebfbk8pqA8
獅白ぼたん 暗黑破壞神:永生不朽 https://www.youtube.com/watch?v=3_y3QpIDcks
14:00 星街すいせい 英語學習班 https://www.youtube.com/watch?v=8dCAgdVMUps
17:00 潤羽るしあ 污房間一瞥 https://www.youtube.com/watch?v=-JXMMRFzgfw
先前未記錄 アキロゼ ASMR https://www.youtube.com/watch?v=0PLpEHHyVf8
角巻わため 麥塊 https://www.youtube.com/watch?v=MUh5C2OGEc4
常闇トワ、ラトナ・プティ、白雪レイド 揍擊派對 https://www.youtube.com/watch?v=9uTkebi5ncw
-- 推廣:「YT聊天室顯示PTT推文」功能(#1V-m0SMK (C_Chat)) 1.安裝暴力猴 https://violentmonkey.github.io/ 2.安裝腳本 https://greasyfork.org/zh-TW/scripts/418469-pttchatonyt 完成以後,即可在 Youtube、Holotools 觀看實況時,同步即時顯示討論串推文啦~ -- 常羨人間琢玉郎,天教分付點酥娘。 盡道清歌傳皓齒、風起,雪飛炎海變清涼。 萬里歸來顏愈少、微笑,笑時猶帶嶺梅香。 試問嶺南應不好,卻道:此心安處是吾鄉。               ——【北宋】蘇軾《定風波・南海歸贈王定國侍人寓娘》 --
※ 發信站: 批踢踢實業坊(ptt.cc), 來自: 115.133.95.178 (馬來西亞) ※ 文章網址: https://www.ptt.cc/bbs/C_Chat/M.1623540269.A.406.html
1Ftinsho: 乙 06/13 07:24
2Fdorydoze: 星姊瀏海還沒長回來喔 06/13 07:25
3Fpwseki206: 丙,頭髮長回來大概要一個月吧... 06/13 07:26
4Fdibblo: 乙 06/13 07:27
5Fdibblo: 狗還醒著 06/13 07:27
6Fqsx889: 星姊那個封面很像誰突然想不起來 06/13 07:27
7Fth123: 星街還是那個瀏海www 06/13 07:28
8Frxsmalllove: 乙 06/13 07:29
9Fzealotjacky: 11:00會長Meme review https://youtu.be/5OgO3PDI3ko 06/13 07:30
10Fjo8246hn: 早安啊,後來PP沒開,看起來也沒有其他的消息了吧 06/13 07:30
11Ftinsho: PP等等9點MH 06/13 07:31
12FJaka: Mori Calliope Shadowverse PogChamp 06/13 07:31
13Fpwseki206: No news is good news. 06/13 07:31
14FTHEKYLE: 還以為meme review 取消= = 06/13 07:32
15Flycs0908: https://i.imgur.com/8CFhEWL.jpg 曾經把洽馬的湯倒掉 06/13 07:33
16Flycs0908: 關店的牡丹聲援她還邀她一起做拉麵 謝謝妳QQ 06/13 07:33
17Fjo8246hn: 要上班了,今天又要忙整天,希望明早下班後可以開心看V 06/13 07:34
18FEternalNebul: 暗黑那個是工商嗎?怎麼已經有了 06/13 07:36
19Fth123: 樓上明早下班?要做這麼長喔 辛苦了 06/13 07:36
20Fdoomhammer: 獅子妳有手機嗎?Don't u have a phone? 06/13 07:37
21Fpwseki206: 辛苦了,願工作順利 06/13 07:37
22Fgaucher: 露西亞的待機圖有夠好笑 06/13 07:39
23Fgnx9999: https://youtu.be/MtwuyTvjVCw 06/13 07:45
24Fdibblo: 哇..辛苦了 06/13 07:46
25Fjudgewing: 睡了一晚更怒了orz 06/13 07:46
26Fgoolgo: 星街這瀏海很可愛,看到心情都會好一點 06/13 07:47
27Fgoldfun: 星姐齊劉海有夠可愛 06/13 07:47
28Fguolong: 暗黑那個不是工商是實況主試玩,今天圖奇大概也是一堆手 06/13 07:50
29Fguolong: 機台 06/13 07:50
30Fwacau: 鯊的待機乍看很像吐血 06/13 07:58
31Frxsmalllove: 鯊鯊開 06/13 08:01
32Fgnx9999: https://youtu.be/EYCYQ4Wi6C8 黑騎 Apex 06/13 08:03
33Fzzxc0987: 剛看到鯊魚聊天室出現萬代的說鯊魚收到鼓了 06/13 08:03
34Frxsmalllove: 可以期待打鼓鯊了~? 06/13 08:05
35FQuietlake: 收到鼓了,不知道會不會實況太鼓 06/13 08:06
36Fmitkuchen: 鯊鯊搶先試玩欸w 06/13 08:06
37Ftsubasawolfy: 啟動捕捉器抓美國笨呆 06/13 08:08
38Fmitkuchen: 中風操作w 06/13 08:12
39Frxsmalllove: 卡教學www 06/13 08:13
40Fasder1950: 六樓是說像她嗎?https://i.imgur.com/BoUH3Qi.jpg 06/13 08:13
41Fmitkuchen: 笨呆教學作太難了 草w 06/13 08:13
42Fwacau: 在教學模式中風ww 06/13 08:13
43Ftsubasawolfy: 鯊鯊沒玩過XBOX 所以一直按成PS的A XDDD 06/13 08:13
44Frxsmalllove: Is that right? 06/13 08:17
45Fmitkuchen: 鯊鯊是不是想偷看內褲w 06/13 08:20
46Ftsubasawolfy: 很明顯想偷看胖次 06/13 08:20
47Fguolong: 原來鯊鯊這款是那個最近在預約的Xbox同捆機遊戲 06/13 08:22
48Fdevilshadow: 動作感覺不是很流暢 06/13 08:23
49Fnihilistrue: 色小鬼鯊XD 06/13 08:23
50Fth123: 鯊鯊也有手了喔 06/13 08:27
51Fguolong: 萬代出的就不要太計較了 06/13 08:29
52Ftsubasawolfy: 這該從何吐槽起.... 06/13 08:35
53Felmes: 挖喔 11:00 meme是華生 06/13 08:36
54Fvolf1065015: 446之前也有實況過一次暗黑 是一樣的吧? 06/13 08:37
55Ftsubasawolfy: 鯊鯊:原來尾巴是插入式的 所以他才用水冷系統XDD 06/13 08:37
56Fmitkuchen: 今天是暗黑手游版喔 06/13 08:37
57Fmitkuchen: i see w 06/13 08:41
58FKangarooDad: 早安 反正我是沒睡啦 06/13 08:44
59Fuco330: DiabloM已經出了嗎 @@? 06/13 08:46
60FMits5190: 星街一瞬間以為什麼時候有這新人 06/13 08:47
61Fblackone979: 還沒出 06/13 08:47
62Fhsiehfat: 這款打擊感有點不太好,打擊中的僵直時間稍微長了一點 06/13 08:47
63Fmitkuchen: 上次看有些國家有測試版了 06/13 08:47
64Fhsiehfat: 戰鬥途中插入的全畫面大張臉也很破壞戰鬥節奏... 06/13 08:49
65Fblackone979: 446標題也有寫是αTEST 06/13 08:51
66Fwindess0823: 收~~嵐~~ 06/13 09:01
67Fmekiael: 暗黑手遊0.0 06/13 09:01
68Fmekiael: 446是工商嗎 06/13 09:02
69Fgread: PP開 06/13 09:02
70Fblackone979: 應該是像之前暗黑2重製版那樣收到廠商給的測試碼而已 06/13 09:03
71Fgread: PP初見天慧龍 先猜慧星撞地球保底一貓 06/13 09:03
72Fdibblo: 大獅深受各種廠商喜愛啊.. 06/13 09:03
73FWeiHsiang76: PP轉圈中 06/13 09:04
74Fwindess0823: 天使會講昨天電話結果嗎 06/13 09:04
75Fkiato: 重整之後 正常 06/13 09:05
76Fchichiihc: Pp昨天怎麼了?? 06/13 09:05
77FJohnsonj: PP在喝啥碳酸飲料XD 06/13 09:06
78FTrickerTewi: 紅牛給你一對翅膀XDD 06/13 09:06
79FTrickerTewi: PP:已經有一對了啦 06/13 09:06
80Fgread: PP昨晚在跟哈洽馬通電話 06/13 09:06
81Fwindess0823: 無情工商紅牛 06/13 09:06
82Fvolf1065015: 狼媽年初占卜有說446的工作會很安定確實 真的一堆 06/13 09:06
83Fchichiihc: PP 原來跟hachama 很好 06/13 09:07
84Fgread: 狼媽占卜與其說是通靈 不如真的有點未卜先知的地步了 06/13 09:07
85FWeiHsiang76: PP社內暖男個性跟誰都很好 06/13 09:08
86Fyukimura0420: PP去年10月住院期間 哈洽馬常去探望陪她聊天的樣子 06/13 09:08
87Fsustainer123: 天龍心常一起吃飯 不是哈恰馬煮 06/13 09:09
88Fckwing03: 那時還沒回國吧 06/13 09:09
89Fwindess0823: ==天使不講耶 三者面談的時後講嗎 06/13 09:09
90Fth123: 有點意外的是沒看過阿火跟哈恰馬連動過 但是阿火很常在實 06/13 09:10
91Fth123: 況提到哈洽馬 06/13 09:10
92FTheMatt: 我寧可不要感覺到PP好,每次都是有人出事才感覺到 06/13 09:10
93FTheMatt: 以上說笑,不過PP真的是很會安定朋友心的那種人 06/13 09:10
94Fcurance: 推 06/13 09:10
95Fes9114ian: PP初見天彗應該會三貓w 06/13 09:10
96Fdibblo: pp真的很棒很可愛..希望未來有治愈梅爾式症的醫療技術 06/13 09:10
97Fcasterliao: 要講啥?昨天不是都說等他回來了嘛 06/13 09:10
98Fv800982004: 金獅子大戰天慧龍 06/13 09:11
99Fwindess0823: 後面一定會講拉== 推特都那樣發了 06/13 09:11
100Fblackone979: 狗今晚又要繼續音速小子 要連兩天通宵嗎 06/13 09:12
101Fvitalis: 孔雀媽pochi在畫孔雀40萬賀圖,手手也動的好魔性呀! 06/13 09:12
102Fwindowsill: 今天446 DIABO mobile 06/13 09:13
103Fwindess0823: 狗不通霄才不正常(? 06/13 09:13
104Fes9114ian: PP防禦稱好稱滿吧 06/13 09:13
105Fgread: 我覺得最多就推特上講的再說一次而已 在更進一步應該是沒有 06/13 09:13
106Fv800982004: 你們不是有手機嗎.jpg 06/13 09:14
107FReficuly: 我還比較訝異狗沒繼續玩,不過保重身體是好事 06/13 09:14
108FWeiHsiang76: 不知道弱小招來對天慧龍的效果如何 06/13 09:14
109Fgread: 弱小招來只要不是那種體型血量都固定的王都有效吧 06/13 09:14
110Fv800982004: 第一次打我是吃龍耐+防大+短期催眠 06/13 09:15
111Fgread: 畢竟本來的效果就是封印偏大隻的個體 06/13 09:15
112Fblackone979: 弱小招來那個血量差距老實說根本差不到哪去 06/13 09:15
113Fwindtemple: PP馬上立旗www 06/13 09:15
114Fwindess0823: 會稍微講些什麼安心的話撫大家吧 聊天室都會問 06/13 09:16
115Fbenny614017: 會長在PP那邊看 06/13 09:17
116Fgread: 沒開副營地 慢慢跑ww 06/13 09:17
117Fcrazypitch: 沒用吧 我覺得弱小招來不如換怨虎丸加保險 06/13 09:17
118FWeiHsiang76: 古龍看PP打古龍 06/13 09:17
119FReficuly: 魔物版有測試文章,雷神龍也有效,天慧理論也有 06/13 09:18
120Fes9114ian: 會長等著看PP貓車ww 06/13 09:18
121Fmitkuchen: 會長:我初見沒死過喔 06/13 09:18
122Fgread: 會長這個遠古老辣入應該是沒打過天慧龍 06/13 09:18
123Fblackone979: 想引雷狼w 06/13 09:18
124Ffgh123d: 拉不過來笑死 06/13 09:18
125FWeiHsiang76: 想拖金雷公去天慧龍那www 06/13 09:18
126Fes9114ian: 會長遭早就打贏了 06/13 09:19
127Fes9114ian: 襲擊ww 06/13 09:19
128FWeiHsiang76: 襲擊來啦wwwwww 06/13 09:19
129Ffgh123d: 一開場就襲擊888888 06/13 09:19
130Ffgh123d: 欸 居然跑去撞雷狼www 06/13 09:19
131Fmitkuchen: 換場www 06/13 09:19
132Fblackone979: 開場襲擊 結果是去撞雷狼 06/13 09:19
133FWeiHsiang76: 結果去打雷狼www 06/13 09:19
134Fes9114ian: 結果是撞魔物 06/13 09:19
135Fbenny614017: 太扯,天彗直接開大 06/13 09:19
136Fmitkuchen: 結果雷狼跑了w 06/13 09:19
137Fblackone979: 雷狼:欸我沒惹你 06/13 09:19
138Fpwseki206: 空媽昨天好像也沒睡好的樣子,但有小睡片刻 06/13 09:20
139Ffgh123d: 是我錯覺還是這隻天彗比較兇 技能也用太快 06/13 09:21
140Fes9114ian: PP這樣受身到時候會被combo 06/13 09:22
141FReficuly: 船長的待機圖…又在挑戰了 06/13 09:23
142Fcoftea: 剛睡醒 PP有聊昨天電話聊啥嗎 06/13 09:24
143FWeiHsiang76: PP會怕wwwwwwwww 06/13 09:24
144Fantonio019: PP也太怕XDDD 06/13 09:24
145Fgread: 我覺得應該是錯覺 06/13 09:24
146FWeiHsiang76: PP懂鋼彈耶 06/13 09:26
147Fes9114ian: 正面吃光炮ww 06/13 09:26
148Fgread: 上不了紅刃的PP 06/13 09:26
149Fblackone979: 會吃到光砲真的是蠻厲害的(? 06/13 09:27
150Fes9114ian: 襲擊來啦 06/13 09:27
151Ffgh123d: 8888888 06/13 09:27
152Fvolf1065015: 差點撞死w 06/13 09:27
153Ffgh123d: 沒死 可惜(X 06/13 09:27
154Fwindtemple: 竟然沒死www 06/13 09:27
155Fyukimura0420: 差點貓wwww 06/13 09:27
156Fantonio019: 沒死 硬 06/13 09:27
157Fes9114ian: 沒貓欸ww 06/13 09:27
158Fgread: 居然沒貓 PP防禦好高喔wwww 06/13 09:27
159Ffish10078: 竟然沒貓w 06/13 09:27
160FJohnsonj: PP發出了符合猩猩身分的叫聲wwwww 06/13 09:27
161Fnick1300043: 中風太刀 06/13 09:28
162Ffgh123d: wwww陪天彗吸氣人也太好 06/13 09:28
163Fwindtemple: 484插到防禦7XD 06/13 09:28
164FTrickerTewi: 近戰有配好很難貓啦,好狐是太誇張 06/13 09:28
165Fes9114ian: 連根性都還沒用掉 真的硬 06/13 09:28
166FTheMatt: 有吃防禦大糰子,沒吃可能就直接貓了 06/13 09:28
167Fes9114ian: PP大概要打一段時間了 06/13 09:29
168Fterrence000: 笑了 PP快瘋了 06/13 09:29
169Fquarda: 遠程防生滿吃大防禦團子我記得也不會貓 06/13 09:29
170FRocksolid: WWW 鯊魚的操作真的是看到快中風XDD 06/13 09:29
171Fgread: 防禦大糰子不就是精靈加護嗎 剛剛被撞那下沒看到有沒有發動 06/13 09:29
172Fes9114ian: 但我覺得3.0改版最難打的是首領雷狼 又小隻又超過動 06/13 09:30
173Fcrazypitch: 初見防、醫療、根性 三個吃下是保險 06/13 09:30
174Fantonio019: 各種受身接招都沒死 真猛 06/13 09:31
175Ffgh123d: 天慧一堆騙見切的動作 G8 06/13 09:31
176Fwindtemple: 居到啦XD 06/13 09:31
177Fasasas0723: 太刀也沒什麼其他貓飯好吃的 短期催眠 防禦 大毅力 06/13 09:31
178Fes9114ian: 至少PP都會記得把血線撐滿 06/13 09:31
179Ffgh123d: wwww亂拉蟲被逞罰 06/13 09:31
180Fgread: 瞬間二段昇刃 高端操作 06/13 09:31
181Fantonio019: 雷狼大哥 06/13 09:32
182Fquarda: mhw開始給我的感覺就是火力過剩,所以我都吃防 06/13 09:32
183Fantonio019: 沒按到大招 06/13 09:33
184Fasasas0723: 大招沒按出來w 06/13 09:33
185Ffgh123d: 再客家阿PPwww沒用到操龍大絕 06/13 09:33
186Fantonio019: 再來是泡狐大哥 06/13 09:33
187Fgread: 紅刃浪費了 可惜 06/13 09:33
188FWeiHsiang76: 泡狐來啦www 06/13 09:33
189Fvolf1065015: 天慧龍又在打百龍了www 06/13 09:33
190FReficuly: 各路好漢來相助 06/13 09:33
191Fantonio019: 全世界都跑來幫忙XD真熱血 06/13 09:33
192FJohnsonj: PP也太受其他魔物喜愛了吧 都來幫她XD 06/13 09:33
193Fv800982004: 天慧要吃龍耐啊 有吃沒吃差滿多的 06/13 09:33
194Fv800982004: 就知道平時人緣多好XD 06/13 09:34
195Fantonio019: 逃命囉 06/13 09:34
196Fes9114ian: PP但的受身真的好危險 06/13 09:34
197Fyukimura0420: 落跑wwww 06/13 09:35
198Fgread: 回家玉wwww 06/13 09:35
199Fcrazypitch: 回家流 06/13 09:35
200Ffgh123d: 杯壁外鄉人戰法 06/13 09:35
201Fblackone979: 笑 06/13 09:35
202Fantonio019: 逃避雖可恥但有用 06/13 09:35
203Fbalingmirror: 高歌離席 06/13 09:35
204FWeiHsiang76: 是不是可可教的www 06/13 09:35
205Fv800982004: 智慧的猩猩(O 06/13 09:35
206Fstarian: PP落跑流 06/13 09:35
207Fgread: 初見很難知道哪些招不能受身 06/13 09:36
208Frxsmalllove: 習慣了 鯊鯊特色(? 06/13 09:36
209Ffgh123d: 但是PP的問題是初見受身都往人家臉上飛 06/13 09:36
210FBronyXrG: x 06/13 09:36
211FBronyXrG: 老油條 回家玉躲貓 06/13 09:36
212FWeiHsiang76: 正面吃貫通砲wwwww 06/13 09:37
213Fes9114ian: 又正面吃光炮w 06/13 09:37
214Fantonio019: 又一個大哥 06/13 09:37
215Ffgh123d: PP的防禦真的很高欸 我的太刀裝吃到那個會被秒 06/13 09:37
216Fv800982004: 野生的泥翁增援www 06/13 09:37
217FWeiHsiang76: 魔物緣太好了吧PP wwwwwwww 06/13 09:37
218FJohnsonj: PP的場 怪物來幫打的頻率是不是超高阿XD 06/13 09:37
219Fantonio019: 深受各路魔物愛戴的金獅子 06/13 09:37
220Fyukimura0420: 金獅子交友廣闊 06/13 09:37
221Faulaulrul4: 深受大自然喜愛的猩猩(?) 06/13 09:37
222Fr30307: 金獅PP的面子很大 06/13 09:37
223Fes9114ian: 襲擊來了 06/13 09:38
224Ffgh123d: 有居到 可惜 06/13 09:38
225Fantonio019: 可愛星星用臉接 06/13 09:38
226FJohnsonj: 現在才注意到 尾巴砍斷了ㄟ 06/13 09:38
227FWeiHsiang76: PP專武怨虎出現 06/13 09:38
228Fantonio019: 怨怨也要來幫了嗎 06/13 09:39
229FTheMatt: 公道伯出場了 06/13 09:39
230Fstarian: 拉醬面子就是大 06/13 09:39
231Fgread: 差點忘記挖尾巴www 06/13 09:40
232FWeiHsiang76: 先挖尾巴比較重要w 06/13 09:40
233Ffgh123d: 找不到wwww 06/13 09:40
234FJohnsonj: 慘 找不到尾八XD 06/13 09:40
235FWeiHsiang76: 嘿民教找到了 06/13 09:41
236Fantonio019: 天彗的尾巴真的很像路邊的樹枝 06/13 09:41
237Fes9114ian: 太刀跟天彗裝相性很合 PP穿上就能暫時畢業了 06/13 09:41
238FRocksolid: 鯊大叔上身WWW 06/13 09:41
239FWeiHsiang76: 藍頭啦 06/13 09:41
240Fes9114ian: 藍頭了 06/13 09:41
241Ffgh123d: 藍頭了 好穩 06/13 09:41
242Fgread: 天慧跟近戰都很合阿 遠攻手就比較可惜了 06/13 09:42
243Fvolf1065015: pp居然沒貓過嗎ww 06/13 09:42
244Fantonio019: 結果PP要初見0貓了嗎 06/13 09:42
245Frxsmalllove: 女角是酷酷型的啊 06/13 09:42
246Ffgh123d: PP裝超硬 06/13 09:42
247Fes9114ian: PP把防禦撐滿又有注意血線 OK的 06/13 09:42
248Fes9114ian: 又吃光炮w 06/13 09:43
249Fyukimura0420: 又吃到一發w 06/13 09:43
250FWeiHsiang76: 又正面吃www 06/13 09:43
251Fray10133: 正面吃炮 屌喔 06/13 09:43
252FWeiHsiang76: 而且PP有吃龍耐性大 06/13 09:43
253Fszx5986902: 光炮超好躲 PP怎麼每次都吃到阿XD 06/13 09:43
254Fgread: 果然硬才是王道嗎 我初見太刀裝吃光砲會直接蒸發 06/13 09:43
255Fhxhjerry: pp真的很硬,正面接光炮和襲擊那麼多次都沒死 06/13 09:43
256Fes9114ian: 掰咖了 06/13 09:43
257Fcrazypitch: 藍頭 差不多了 06/13 09:44
258FWeiHsiang76: 要爬山啦 會不會跟菈米一樣爬到一半飛走ww 06/13 09:44
259Fantonio019: 我初見時的裝 光接個翅膀二連都會貓QQ 06/13 09:44
260Fgread: 天慧龍睡覺的地方超怪的 06/13 09:44
261Fes9114ian: 飛去山頂睡覺 06/13 09:44
262Fvgundam77: 天慧去睡覺了 06/13 09:44
263Ffgh123d: 會吧 天慧超淺眠 06/13 09:44
264Fblackone979: 天彗睡覺的地點超靠北 06/13 09:44
265Fvgundam77: 那邊不好爬 要爬蠻久 06/13 09:45
266Fblackone979: 平常沒在跑圖的大概連要怎麼上去都不知道 06/13 09:45
267FTrickerTewi: 有大翔蟲直接上山頂 藥劑位置 06/13 09:45
268Fsh021515: 欸不是 我以為睡醒還可以繼續看狗台 居然關了 06/13 09:45
269FTrickerTewi: 沒記很地域 06/13 09:46
270Ffgh123d: 7號附近可以連拉兩個大翔蟲到山頂 06/13 09:46
271Fsh021515: 我還以為狗說的2是開到星期2的2 06/13 09:46
272Fray10133: 我也很意外(X 06/13 09:46
273Fv800982004: 大翔蟲要有放啊 他們一堆營地都還沒開完的XD 06/13 09:46
274Ffgh123d: 醒了 超快 06/13 09:46
275Fblackone979: 自己下來了w 06/13 09:46
276Fgread: 睡醒飛走了www 06/13 09:46
277FWeiHsiang76: 還沒爬就移動了 被PP賺到ww 06/13 09:46
278Ffgh123d: www每次想切吼叫都太早 06/13 09:46
279Ffeedcat: 不是啊 天使你怎麼還在迅龍太 06/13 09:46
280Fcrazypitch: pp是齁裡太刀團第一個討伐天彗龍的嗎? 06/13 09:46
281Fv800982004: 迅龍太刀好用啊 06/13 09:47
282Fblackone979: 太賽了吧 06/13 09:47
283Ffgh123d: 迅龍太刀還可以啦 06/13 09:47
284Fjo8246hn: 欸不是,昨天PP只說在通電話,從來都沒有說是跟哈恰瑪講 06/13 09:47
285Fjo8246hn: 電話,雖然機率很高不過沒講的事還是不要這麼篤定比較好 06/13 09:47
286FTrickerTewi: 也只輸霞太跟轟太而已 06/13 09:47
287Fv800982004: 翔蟲接招w 06/13 09:47
288Fes9114ian: 贏了 06/13 09:47
289Fwindtemple: 過啦 06/13 09:47
290Fv800982004: 贏了! 06/13 09:47
291Fvolf1065015: 打過了ww 06/13 09:47
292Ffgh123d: 太強啦 06/13 09:47
293Fantonio019: 齁其他太刀仔都沒啥在玩吧 06/13 09:47
294FMits5190: 馬上就死了 06/13 09:47
295Fhengsao: PP猛 06/13 09:47
296FWeiHsiang76: 零貓過啦 06/13 09:47
297Fblackone979: 迅龍武好配裝啊 06/13 09:47
298Fyukimura0420: 初見討伐成功啦 06/13 09:47
299FJohnsonj: 猛ㄟ 06/13 09:47
300Fszx5986902: 看PP還在穿金獅腿就知道她還停留在1.0阿XD 06/13 09:47
301Faulaulrul4: 喔喔 06/13 09:48
302Fray10133: PP好猛 06/13 09:48
303Fmimei50510: PP有料 06/13 09:48
304Fantonio019: 會長出現 06/13 09:48
305Ffgh123d: 曾經的中風太刀 如今可以0貓過天彗了 06/13 09:48
306Fcrazypitch: 30分 初見算可以了 06/13 09:48
307Fmekiael: 爽到飛起 06/13 09:48
308Fhxhjerry: 天彗龍放水啦,看pp殘血還馬上倒地裝死讓pp補(x 06/13 09:48
309Fwl02390852: 有料PP 06/13 09:48
310Fzerobn: 無情工商 06/13 09:48
311Fmitkuchen: 紅牛的力量w 06/13 09:48
312Fvolf1065015: 還沒用掉根性 居然www 06/13 09:48
313Fes9114ian: 比野團一堆雷包強了 06/13 09:48
314Fterrence000: 初見零貓 很有料了啦 06/13 09:48
315Fszx5986902: 其實已經不中風了 會見切會大居合 06/13 09:48
316Fray10133: 熟人就是可以放水(X 06/13 09:48
317Fes9114ian: 可惜沒玉 06/13 09:49
318Fv800982004: 金獅腿其實還可以啦 至少它防夠高 穿鑄鐵防超低 06/13 09:49
319Ffgh123d: 所以我是用曾經阿www 06/13 09:49
320FMits5190: 天慧龍跟PP很熟合理 06/13 09:49
321Ffeedcat: 那他襲擊怎麼躲的 06/13 09:49
322FWeiHsiang76: PP的太刀是正常水平了啦 06/13 09:49
323Fes9114ian: 首領雷狼真的比較難打 超愛追擊 06/13 09:49
324Fantonio019: 用臉接啊 弱者才需要躲(? 06/13 09:49
325Ffgh123d: 用臉接阿 防禦高就任性 06/13 09:49
326FWeiHsiang76: 襲擊硬吃 06/13 09:49
327Fwindtemple: 沒躲阿XD 06/13 09:50
328Fes9114ian: 沒躲 PP直接硬吃 06/13 09:50
329Fzxcvvcxz: 我覺得星街可以用天慧龍的方式登上舞台的話應該蠻帥的 06/13 09:50
330Fgread: 會見切會居合算合格的太刀俠了 只是有時見切的時機很中風(X 06/13 09:50
331Fv800982004: 一些配裝雖然技能強但防真的很低 像三洞衣之類的... 06/13 09:50
332Ffgh123d: 防禦夠高連天地龍的尾獸玉都能硬吃了(X 06/13 09:50
333Fgread: PP硬到不用躲襲擊 硬吃 06/13 09:50
334Fvanceliu: PP大叔笑 06/13 09:50
335Fv800982004: PPT:萬物皆脆弱 我用臉接 06/13 09:50
336Fp4585424: 所以才要神護石啊 06/13 09:50
337Fdreackes: 為啥要躲襲擊? 06/13 09:50
338Fcrazypitch: 就海境s衣啊 三洞 可是防低 06/13 09:51
339FMoonSkyFish: PP跟會長都防禦流的 硬吃襲擊都不會掛 06/13 09:51
340Ffgh123d: 因為正常裝備不插防禦被撞到會死 06/13 09:51
341Fkf01234: 興奮之情 溢於言表的PPT 06/13 09:51
342Fszx5986902: 其實現在太刀懶人直接天彗全套就好了 06/13 09:51
343Fzealotjacky: 兔子封面圖ww 趙也要好油喔Peko了嗎ww 06/13 09:51
344Fes9114ian: 天彗裝穿上就畢業了 跟太刀超合 06/13 09:51
345Fvanceliu: PP就被會長帶阿 走防禦流不會意外XDD 06/13 09:51
346Fwindtemple: 一般攻擊向配裝被撞會秒阿XD 06/13 09:51
347Fv800982004: 天慧裝加防禦的珠子塞一塞打啥都很輕鬆 06/13 09:52
348Fkf01234: 強化防禦不起眼但很有用 06/13 09:52
349FFritter: 居合反身翼砸算抓很準了 至少這種水準的她都居的到 06/13 09:52
350Fantonio019: 天彗裝帥到沒朋友 06/13 09:52
351Fgread: 海境主要還是配射手裝比較多 射手本來防就低了 沒差(X 06/13 09:52
352Ffgh123d: 反正穿甚麼都會被秒殺(X 06/13 09:53
353Fjacky3838: 446還沒開台就被洗 06/13 09:53
354Fes9114ian: 但PP沒錢ww 06/13 09:53
355Fszx5986902: 天彗裝不用配防禦珠子都超硬了 06/13 09:53
356Fv800982004: 前幾天打三首領畢業考就是穿塞滿防的天慧去跟它們拚w 06/13 09:53
357FRocksolid: 鯊鯊虐羊中WWW 06/13 09:55
358Fv800982004: 單打高難度總覺得會貓w 06/13 09:55
359Fgread: 太刀配天慧裝還是要有個納刀護石會比較好配裝 06/13 09:55
360FWeiHsiang76: 誰想騙PP去打高難度wwwwwwww 06/13 09:55
361Fblackone979: 這套打新高難應該會快速三貓 06/13 09:55
362Fvanceliu: 高難度PP應該有點難 可能會打滿50分 如果都不貓的話 06/13 09:55
363Fwindtemple: 壞耶www 06/13 09:55
364Fsteven70101: PP友稱防禦,沒問題的(?) 06/13 09:55
365Fes9114ian: 高難度打超痛欸 傳穿天彗裝就超痛了 06/13 09:56
366Ffgh123d: 幹 直接打高難天彗wwww 06/13 09:56
367Fzealotjacky: 高難度還好 有穿一般強化滿的裝大概一下半血而已 06/13 09:56
368Fgread: PP的護石沒看清楚 是納刀1 32洞? 06/13 09:56
369Fantonio019: 可以啦 #相信PP 06/13 09:57
370Fa502152000: 被天使治癒了 06/13 09:57
371Fdreackes: 垂皮龍:幹 06/13 09:59
372FFritter: 撐防 而且有吃耐性又常駐補血 應該磨的死啦 高難度天 06/13 09:59
373FFritter: 彗血少蠻多的 反而蜘蛛硬梆梆 06/13 09:59
374Fes9114ian: 差點貓w 06/13 10:00
375Fvanceliu: 差點就貓了XDDDD 06/13 10:00
376Fsteven70101: 蜘蛛絲團神combo耶 06/13 10:00
377FWeiHsiang76: 差點就第一貓了W 06/13 10:00
378Fantonio019: 高難的蜘蛛不能小看啊 06/13 10:01
379Fmekiael: https://i.imgur.com/YYTRZFA.jpg 06/13 10:01
380Fvanceliu: 天彗串場XDD 06/13 10:01
381FWeiHsiang76: 被炸到W 06/13 10:01
382Fes9114ian: 天彗來了 06/13 10:01
383FJETPOWER: guhhhh 06/13 10:01
384Fblade0314: 死神一開就發病哦 06/13 10:02
385Fr30307: 客家天使 06/13 10:02
386FWeiHsiang76: 二隻都討伐目標換一隻操龍打比較好呢w 06/13 10:03
387Ffgh123d: PP的特殊納刀是不是只有接過大居合( 06/13 10:04
388Fr30307: 覺得天使應該弄鋼龍三件還能省水(? 06/13 10:04
389Fzealotjacky: 開場6分後 終於上到刃了 06/13 10:04
390Fvanceliu: 蜘蛛攻擊型態不好判斷就是了 06/13 10:04
391Ffgh123d: 貪ww這個拉蟲要不是有防禦就貓了 06/13 10:05
392Ffeedcat: Pp還不會兜割啊.... 06/13 10:06
393FWeiHsiang76: PP會兜割啊 風雷尾刀就兜割收掉的 06/13 10:07
394Fzealotjacky: 他換櫻花會不會打的還比較快 06/13 10:07
395Frxsmalllove: 鯊鯊越來越帥惹 06/13 10:07
396Fantonio019: 能過就好了 除非磨到超時 06/13 10:08
397Ffgh123d: 迷路了 06/13 10:08
398Fvolf1065015: 暴雪黑跑來亂聊天室是怎樣... 06/13 10:08
399Fv800982004: 很正常啊 工商本來就會吸到黑粉XD 06/13 10:08
400Fes9114ian: 446還沒開台就一大堆蟑螂= = 06/13 10:08
401Fr30307: 原來446要工商暗黑 06/13 10:09
402Fszx5986902: PP很不熟蜘蛛喔 一堆招都見切錯誤 06/13 10:10
403Fes9114ian: PP可能時間來不及 06/13 10:10
404FRocksolid: 這隻鯊魚對空氣造成極大的傷害 06/13 10:11
405FWeiHsiang76: 紅刃用下戳ww 06/13 10:12
406Fywjameslin: 中風 06/13 10:12
407Fnoreg10116: 中風太刀XD 06/13 10:13
408Ffgh123d: wwww這個大居合 06/13 10:13
409Frock2345: 被打掉XD 06/13 10:14
410FWeiHsiang76: 還想兜割啊PPwwwwwwwww 06/13 10:14
411Fguolong: 我太刀仔很少看PP打龍避免中風 06/13 10:14
412Fnick1300043: 火烤PP 06/13 10:14
413Fdreackes: PPT也很經不起觀眾嗆XD 06/13 10:14
414Fmekiael: 暴雪黑就台灣人啊 06/13 10:15
415Ffgh123d: 蜘蛛要打20分鐘還沒藍頭 感覺會來不及 06/13 10:15
416Fszx5986902: 感覺會打到時間到诶 一隻蜘蛛快20分都還沒藍頭 06/13 10:15
417Fvanceliu: 國外暴雪黑也不少喔 06/13 10:15
418Feric80135: 暴雪黑全世界都有把,絕對不只台灣 06/13 10:16
419Fcrazypitch: 暴雪黑怎麼可能只有台灣人 06/13 10:16
420Fnoreg10116: 蜘蛛的動作應該算很好預判了,記得PP打其他都沒這麼中 06/13 10:16
421Fnoreg10116: 風阿XD 06/13 10:16
422Fmekiael: 看一下留言就知道八成是台灣人跑去亂了 06/13 10:16
423Fdreackes: 外國也一堆拉 BZ那次是在台灣發表喔 06/13 10:16
424FFatesoul: 國外暴雪黑不會喊共雪拉 06/13 10:16
425Frock2345: 那個洗頻留言害我笑了w 06/13 10:16
426Fnoreg10116: 丟苦無R 06/13 10:17
427Fmekiael: 國外鄉民喊共雪幹嘛?w 06/13 10:17
428Ffgh123d: 是剛剛有指示可以抓了還是想靠賽wwww 06/13 10:18
429FDoraB: 玩WOW的那個Asmongold不是都要去玩FF14了嗎w 06/13 10:18
430Fcrazypitch: 之前暴雪"你們沒有手機嗎?"的笑話惹怒一堆老粉 06/13 10:18
431Fzealotjacky: 我日文N87 446台那個洗頻留言是不是有點機翻的感覺 06/13 10:18
432Fantonio019: 同族來幫忙了? 06/13 10:18
433Ffgh123d: 窮到痴漢方藥補血wwwww 06/13 10:18
434Ffgh123d: *吃 06/13 10:18
435Fasteea: 騎士道www 06/13 10:19
436Fr30307: 笑死飛回家 06/13 10:19
437FWeiHsiang76: 按到回家球了wwww 06/13 10:19
438Feric80135: 兔子的待機圖也太草了吧 06/13 10:19
439Fnoreg10116: 痴漢方藥 嗯... 06/13 10:19
440Fmekiael: 之前國外是噴暴雪的遊戲開發方針 06/13 10:19
441FWeiHsiang76: 都回營地了就補個藥啊WWW 06/13 10:19
442Fcrazypitch: → mekiael : 暴雪黑就台灣人啊 06/13 10:19
443Fr30307: 在營地丟回家玉wwwwwwwwwwwwwwwwwww 06/13 10:19
444Fcrazypitch: 你說的啊 大家是說暴雪黑不可能只有台灣人 06/13 10:20
445Ffgh123d: 這場打不完了啦www到底誰騙PP來接的www 06/13 10:20
446Ffgh123d: 阿可以抓了ww 06/13 10:20
447FWeiHsiang76: 可以抓啦 06/13 10:20
448FWeiHsiang76: 可以啦 還有25分能打天慧龍 06/13 10:20
449FFatesoul: 對阿 我是指國外誰管你什麼中資有股份 遊戲爛噴而已 06/13 10:20
450Fnoreg10116: 真的中風XDD 06/13 10:20
451Fzealotjacky: 蜘蛛花了22分鐘左右藍頭 這樣天彗打得完嗎 06/13 10:20
452Fdnlegend729: 終於居到了 06/13 10:21
453Fmekiael: 嗯 我說的是現在446聊天室的暴雪黑 沒說清楚 06/13 10:21
454Ffgh123d: 感覺等等會被追整場跑www 06/13 10:21
455FWeiHsiang76: 換天慧 06/13 10:21
456Fnoreg10116: 史詩級戰鬥XD 06/13 10:21
457Fcrazypitch: 又不是每個人都在待機台 看到你這句回你而已 06/13 10:21
458Fr30307: 會打到時間到嗎 06/13 10:22
459Ffgh123d: 還是PP要打滿50分鐘尺乳下播剛好接會長meme 06/13 10:22
460Ffgh123d: 原來是引流台阿(X 06/13 10:22
461Fmekiael: 沒關係啊 是我沒說清楚w 06/13 10:22
462Freader2714: 通常是先打天慧再蜘蛛巴XD 06/13 10:22
463Fdnlegend729: 25分鐘打不完吧www 06/13 10:22
464Fa502152000: 原來是這樣 給過(X) 06/13 10:22
465Fnoreg10116: 我覺得可能會先三貓XD 06/13 10:22
466FWeiHsiang76: 跑走啦WWW 06/13 10:22
467Fdnlegend729: 跑了wwwwwww 06/13 10:22
468Ffgh123d: 走錯路ww 06/13 10:23
469Fr30307: 天彗:現在開始我只要狂飛25分鐘就是我贏了 06/13 10:23
470FReficuly: 「這是遲來的愚人節笑話嗎?」 06/13 10:23
471Fnoreg10116: 繞路PP== 06/13 10:23
472Freader2714: 迷路 超遜 06/13 10:23
473Frock2345: 這就是我的逃跑路線啦! 06/13 10:23
474Ffgh123d: 超級迷路天啊wwww 06/13 10:23
475Fdnlegend729: 跑錯路笑死 06/13 10:23
476Fmekiael: 跑上跑下的… 06/13 10:23
477Fzealotjacky: 天彗只要開始換區PP就來不及了w 06/13 10:23
478Fdreackes: 迷路的天使 06/13 10:23
479Fa502152000: 天彗:我什麼都不用做就結束了 06/13 10:23
480Freader2714: 時間藥不夠還挖www 06/13 10:24
481Fhomeboy528: 之前火雞玩暗黑2的時候是不是沒有蟑螂去耍智障 06/13 10:24
482Fdreackes: 還有空挖礦阿ww 06/13 10:24
483Fdnlegend729: 拉醬別再挖礦了啊 06/13 10:24
484FFatesoul: 沒有 玩魔獸也沒有 06/13 10:24
485Fmekiael: PP來得及吧… 06/13 10:24
486Ffgh123d: 沒大失誤的話應該可以 但是很抖 06/13 10:25
487Fzealotjacky: 如果奇蹟的打出連續倒地應該可以吧 06/13 10:25
488Freader2714: 雖然完全沒管打點 不過聯招比以前進步好多w 06/13 10:25
489Fhomeboy528: 來得及啦,時間還超過一半,而且剛剛有用蜘蛛揍過它 06/13 10:25
490Fantonio019: 換區迷個路大概就危險了 06/13 10:25
491Fvanceliu: 應該會剛剛好50分鐘 不知道是恥辱下播還是打完就是 06/13 10:25
492Ftsubasawolfy: 鯊收 等11點meme 06/13 10:25
493Fr30307: 446那邊會有黑是因為玩的是永生不朽吧w 06/13 10:25
494Freader2714: 慘w 06/13 10:26
495Fmekiael: 這個放招有帥 06/13 10:26
496Fzealotjacky: D2重製目前應該看好居多吧 沒有亂加其他東西的話 06/13 10:26
497Freader2714: 跑了www 繼續拖時間 06/13 10:26
498FDrPJJ: Kiara玩WoW的時候有幾隻啦,存在感很低就是了 06/13 10:26
499Fnoreg10116: 天彗:時間快到了 快飛走 06/13 10:26
500Fa502152000: 先跑就對了 06/13 10:26
501FWeiHsiang76: 貓啦 06/13 10:27
502Fdreackes: 貓拉 06/13 10:27
503Fr30307: 貓惹 06/13 10:27
504Frock2345: 貓 06/13 10:27
505Ffgh123d: 終於被懲罰啦wwwww 06/13 10:27
506Fmekiael: 貓了qq 06/13 10:27
507Fdnlegend729: 貓啦! 06/13 10:27
508Freader2714: nice combo 06/13 10:27
509Fa502152000: 貓車啦 06/13 10:27
510Fnoreg10116: 再受身阿XDDDDD 06/13 10:27
511Fzealotjacky: 大迴旋真的不是很好閃 06/13 10:27
512Fvanceliu: 看他飛起來第二次就知道 貓定了 06/13 10:27
513Fantonio019: 初見沒貓 這時貓QQ 06/13 10:27
514Fmekiael: 不愧是高難度 06/13 10:28
515Ffgh123d: 這支很痛 所以本來不會被貓的問題這時候都出來了 06/13 10:28
516Fr30307: 二連戳跟大迴旋的分辨時間太短了 很難一瞬間反應 06/13 10:28
517Freader2714: 我看今天要恥辱下撥w 06/13 10:28
518FKatanaW: 受錯邊了 往第一下那邊去就打不到 06/13 10:28
519Fes9114ian: 高難度的傷害超痛 不能像剛才那樣搞 06/13 10:28
520Ffgh123d: 距離夠的話那兩招都直接往後拉掉就可以躲掉了 06/13 10:28
521Freader2714: 笑死wwwwwwwwwwwwwwwwwwwwwwwww 06/13 10:28
522Ftudo0430: 死神..... 06/13 10:28
523Ffgh123d: 不過被刺到真的是手放開躺好就好 06/13 10:28
524FKatanaW: 不管是二連戳或大迴旋都是往第一下那邊滾就安全 06/13 10:28
525Fdnlegend729: wwwwwwwwwwwwwwwww 06/13 10:28
526Fantonio019: 剛才初見那場操了4隻龍還打30分 這次我看要涼 06/13 10:28
527FWeiHsiang76: 又飛走啦www 06/13 10:29
528Fa502152000: 天彗:快閃人喔 06/13 10:29
529Freader2714: 還想拉慈火 06/13 10:29
530Fr30307: 襲擊(路過的火龍) 06/13 10:29
531Fmekiael: 一直跑走w 06/13 10:29
532Ffgh123d: 天彗也懂得外鄉人戰法 06/13 10:29
533Fsotali306: 有拉醬快跑喔 06/13 10:29
534Fasteea: 天彗閃人是不想送3貓啦 時間到怎能算PP輸( 06/13 10:30
535Fr30307: 撿到逆麟wwwwwww 06/13 10:30
536Fmekiael: 連續操龍 06/13 10:30
537Ffgh123d: 阿這隻雌火龍看起來有點不中用 06/13 10:30
538Fantonio019: 操龍獵人PP 06/13 10:30
539Fhomeboy528: 操龍揍他兩波這次應該來的及,不要三貓就好XD 06/13 10:30
540Fzealotjacky: 可惜沒有用翔蟲取消硬直給他連續甩尾 06/13 10:31
541FWeiHsiang76: 還想斷尾啊www 06/13 10:31
542Ffgh123d: 貓!! 06/13 10:31
543Ffgh123d: 幹太硬了吧 06/13 10:31
544Fbpolo5566: 襲擊命中 06/13 10:31
545Freader2714: ww還喝水阿w 06/13 10:31
546Fr30307: PP防真的很高 06/13 10:31
547Fmekiael: 超痛 06/13 10:31
548FWeiHsiang76: 又用臉硬吃襲擊WWW 06/13 10:31
549Fdnlegend729: 還想要尾巴啊拉醬 06/13 10:31
550Fr30307: 喝水硬吃w 06/13 10:31
551Fantonio019: 強者都直接用臉接才帥 06/13 10:31
552FWeiHsiang76: 貓防禦術有發動吧ww 06/13 10:31
553Ffgh123d: ww剛剛再補拉一支的話又要回家了 失望(X 06/13 10:31
554Freader2714: 貓車邊緣 06/13 10:31
555Fznck: 差點 06/13 10:31
556Fnoreg10116: RRRR 06/13 10:32
557Ffgh123d: 888888 06/13 10:32
558Fes9114ian: 二貓 06/13 10:32
559Fvanceliu: XDDDD 06/13 10:32
560Fr30307: GGGGGGGGGGG 06/13 10:32
561Fdasbado: 貓 06/13 10:32
562Fmekiael: 還是貓了 06/13 10:32
563Fdnlegend729: 第二貓 06/13 10:32
564Fa502152000: 你終究還是要貓的 06/13 10:32
565FKatanaW: 痛 06/13 10:32
566Fhengsao: 要完 06/13 10:32
567Fznck: 盟夯開始了 06/13 10:32
568Fjasson: 貓了www 06/13 10:32
569Fjs870102: 萌夯開始了 06/13 10:32
570Fbpolo5566: 二貓QQ 06/13 10:32
571FWeiHsiang76: 2貓 萌夯開始啦 06/13 10:32
572Fp4585424: 這個連段真的超麻煩 06/13 10:32
573Fes9114ian: 高難度的天彗打真的打超痛 06/13 10:32
574Ffgh123d: 這招打倒但是不是倒地真的很惡意 06/13 10:32
575Fcaka5566: 這兩隻一起的是高難 中風刀很難打 06/13 10:32
576Fasasas0723: 高難傷害拉起來後又變中風太刀了 06/13 10:32
577Fantonio019: 萌夯不是3貓之後才開始的嗎(? 06/13 10:32
578FKatanaW: 槍翼下壓一定要受身 06/13 10:32
579Fp4585424: 沒閃過躺平了又是一掌 06/13 10:32
580Fzealotjacky: 跟風雷神甩尾一樣 砸在地上但是沒無敵 06/13 10:33
581Freader2714: 放棄了 遜炮猩猩 06/13 10:33
582Fr30307: PP要認真惹 06/13 10:33
583Fdnlegend729: 試問等等走過去飛走的機率有多高 06/13 10:33
584Ffgh123d: 90% 06/13 10:33
585FKatanaW: 補品帶好帶滿耶 06/13 10:33
586Freader2714: 喔是要認真了 ww 06/13 10:33
587Fhomeboy528: 心態有差啦,這招沒居到可以退到旁邊喝水跟直接貓的 06/13 10:33
588Freader2714: 不是一開始就應該要認真吃藥媽www 06/13 10:33
589Fdnlegend729: 15分鐘應該可以......吧 06/13 10:34
590Ffgh123d: 喔已經換區了 06/13 10:34
591Fnoreg10116: 還有十五分鐘 沒有貓的機會 遊戲開始拉 06/13 10:34
592Fhomeboy528: 壓力差很多XD 06/13 10:34
593Fr30307: PP:這次認真起來會怎樣連我自己都會怕 06/13 10:34
594FKatanaW: 硬化藥也上了 06/13 10:34
595Fes9114ian: PP狂上buff www 06/13 10:34
596Ffgh123d: 活過這15分鐘就算PP贏了(X 06/13 10:34
597FDHT: 馬上道歉 06/13 10:34
598Freader2714: 一見面就吃combo 06/13 10:34
599Fbpolo5566: 痛wwww 06/13 10:34
600Fzealotjacky: 沒硬化藥就死了吧ww 06/13 10:34
601Fdnlegend729: 說完馬上被打臉 06/13 10:34
602Fasteea: 喝水就飽了XD 06/13 10:34
603FKatanaW: 沒吃藥剛剛就貓了 06/13 10:34
604Fdreackes: 萌夯的紅牛 wwy 06/13 10:34
605FWeiHsiang76: 差點3貓預備w 06/13 10:34
606Fr30307: 還是PP:啊幹對不起 06/13 10:34
607Fdasbado: 三貓不遠 06/13 10:34
608Fantonio019: 差點進入認真模式10秒就三貓 06/13 10:34
609Ffgh123d: 但是這才是一般人打一般天彗的傷害阿wwww 06/13 10:34
610Fsotali306: 不飛撲喔.... 06/13 10:34
611Freader2714: 挖大居中了!! 06/13 10:35
612Fdnlegend729: 水喔 06/13 10:35
613Fantonio019: 居到 06/13 10:35
614Ffgh123d: 漂亮的居合 06/13 10:35
615Fnoreg10116: 居到拉 06/13 10:35
616Fcaka5566: 嚇死我的居合 06/13 10:35
617Fvanceliu: 差點又吃兩下 06/13 10:35
618Ffgh123d: 挖幹!! 06/13 10:35
619Fdnlegend729: 喔喔喔喔 06/13 10:35
620Freader2714: 挖又居到了 06/13 10:35
621Fasteea: 居然 06/13 10:35
622FWeiHsiang76: 大居閃貫通砲ww 06/13 10:35
623Fsotali306: 挖又居到了 06/13 10:35
624Fzealotjacky: 挖靠 06/13 10:35
625Fnoreg10116: PP潮爽ㄉ 06/13 10:35
626Ffgh123d: 這PP認真起來太強啦 06/13 10:35
627Fhomeboy528: 這個帥一波囉XD 06/13 10:35
628Fr30307: 天啊兩次漂亮的居和 06/13 10:35
629Ff36929: 好帥的pp 06/13 10:35
630Fantonio019: 認真系列 認真居合! 06/13 10:36
631Fcaka5566: 這台技術台! 06/13 10:36
632Fps0grst: PP居合漂亮 06/13 10:36
633Freader2714: 狗面pp 我太小看你了 06/13 10:36
634Fznck: 有點帥 06/13 10:36
635Fbpolo5566: 這個有帥~ 06/13 10:36
636Ftonyhsu0822: 那個中風太刀竟然居合兩次!? 06/13 10:36
637Fchen31502: 哇pp變好強 06/13 10:36
638Fszx5986902: 怎麼突然開竅 剛剛兩下大居真的猛 06/13 10:36
639Fjs870102: 看前面好像沒提到 祭現在在開space 06/13 10:36
640Fdnlegend729: 兜割失敗www 06/13 10:36
641Ffgh123d: 幹 膨脹了 我看要慘wwwww 06/13 10:36
642Fhomeboy528: 剛剛是不是發出了很牙敗的嬌喘 06/13 10:36
643Fa502152000: 誇不得www 06/13 10:36
644Freader2714: 挖膛炸 有機會 06/13 10:36
645Ffgh123d: 藍了 06/13 10:36
646FWeiHsiang76: 炸膛成功啦 06/13 10:36
647Fdnlegend729: 膛炸了 丞相起風啦 06/13 10:36
648Fnoreg10116: 想空揮上刃R 06/13 10:36
649Fr30307: 成功爆胸www 06/13 10:36
650Fvolf1065015: 原來pp平常也在演嗎www 06/13 10:36
651Fdnlegend729: 藍頭 06/13 10:36
652Fzealotjacky: 剛剛連續大居居到差很多 06/13 10:37
653Fdreackes: 這隻血也太少了吧 06/13 10:37
654Ffgh123d: 好像很有機會喔 不要太膨脹的話 06/13 10:37
655Fszx5986902: 天彗還比大蜘蛛爛wwwww 06/13 10:37
656Fr30307: 不要貓的話ww 06/13 10:37
657Freader2714: 因為這場兩支阿 血量會比一隻的少 06/13 10:37
658Freader2714: 斷尾成功 06/13 10:37
659FWeiHsiang76: 斷尾啦 06/13 10:37
660Fnoreg10116: 喜波獵人 06/13 10:37
661Fmekiael: 斷尾了 06/13 10:37
662Fszx5986902: 可是剛剛大蜘蛛打那時間 感覺血沒比較少 06/13 10:38
663Fantonio019: 又跑 卑鄙 06/13 10:38
664Freader2714: 應該是剛剛比較遜w 06/13 10:38
665Fvanceliu: 剩下10分鐘 06/13 10:38
666FWeiHsiang76: 蜘蛛太硬 06/13 10:38
667Fantonio019: 藍頭了 應該OK 06/13 10:38
668Ffgh123d: PP老師又要沒時間啦(X 06/13 10:38
669Fr30307: 得證PP要被逼到絕境才會發揮實力 06/13 10:38
670Fa502152000: 天彗:PP幫我撐十分鐘 06/13 10:38
671Freader2714: 為啥往下跑..../facepalm 06/13 10:38
672Fszx5986902: 我覺得天彗藍頭後好打很多 06/13 10:38
673Fcaka5566: 快沒時間啦 = = 06/13 10:38
674Fnickmath: 妃蜘蛛肉質爛啊 06/13 10:38
675Fhomeboy528: 這隻血應該沒特別少,但是他被蜘蛛跟雌火龍痛揍過 06/13 10:38
676Fmekiael: 絕境天使 06/13 10:38
677Fedith1337: 他們是不是都不太會看地圖== 06/13 10:39
678Fnoreg10116: 笑死 留言都在說剩十分鐘XD 06/13 10:39
679Ffgh123d: PP剛剛蜘蛛一直打不太到 06/13 10:39
680Fa502152000: 才在想怎麼剛剛噴出一句便便w 06/13 10:39
681Freader2714: 又跑.wwwwwwwwwwwwwwwwwwwwwwwwwwwwwwww 06/13 10:39
682Fnoreg10116: 笑死 又飛走wwwww 06/13 10:39
683Ffgh123d: 回去睡覺了 06/13 10:39
684Fhangyaku: pp在過高難度? 06/13 10:39
685Freader2714: 還沒發現 06/13 10:39
686FWeiHsiang76: 高難度 06/13 10:39
687Ffgh123d: 對 06/13 10:39
688Fnoreg10116: 看地圖阿 PP 06/13 10:39
689FKatanaW: 穩穩的啦 拿個小爆桶去水月打醒他 06/13 10:39
690Fcaka5566: 我覺得時間應該會超過XD 06/13 10:39
691Fr30307: 寧願停下來採蜂蜜wwww 06/13 10:39
692Freader2714: 到底www 06/13 10:39
693Fdnlegend729: 飛走了wwwwwww 06/13 10:39
694Ffgh123d: PP老師你要來不及啦www還逛街wwww 06/13 10:40
695Fvanceliu: 真的會來不及喔 06/13 10:40
696Fhangyaku: 隔那麼遠還用跑的喔.... 06/13 10:40
697Freader2714: ggggg 我看藥時間不構 06/13 10:40
698Fdnlegend729: 就這樣跑到時間到嗎 06/13 10:40
699Fzealotjacky: 超遠的 光跑過去就要兩分鐘了吧 06/13 10:40
700Fbpolo5566: PP不飛嗎www 06/13 10:40
701Fszx5986902: 等下時間到絕對是逛街逛太久 06/13 10:40
702Fa502152000: 時間管理大師(慢心) 06/13 10:40
703Fnoreg10116: 餘裕餘裕== 06/13 10:40
704Fr30307: PP的餘裕 06/13 10:40
705Fsotali306: 穩了 06/13 10:40
706Fcaka5566: 時間管理大師PP 06/13 10:40
707Fdnlegend729: 藍頭10分鐘一定夠啦 只是要看他要逛街逛多久 06/13 10:40
708Fhangyaku: 還有11分鐘?不是還很久嗎~~ 06/13 10:40
709Freader2714: 蛙跳展開眠破頭 06/13 10:41
710FWeiHsiang76: 過啦 06/13 10:41
711Fr30307: ??!!! 06/13 10:41
712Fbpolo5566: 诶???? 06/13 10:41
713Fdnlegend729: 打死了 06/13 10:41
714Fvolf1065015: 幾刀就結束www 06/13 10:41
715Fantonio019: 贏啦 06/13 10:41
716Fa502152000: 贏啦!!!!!!!!!! 06/13 10:41
717Freader2714: 居然!!! 06/13 10:41
718Fnoreg10116: 這不是我想看到的RRRRRRRRRRRRRRRR 06/13 10:41
719Fzealotjacky: 這隻天彗剛睡醒再讓是不是 06/13 10:41
720Ffgh123d: 太神啦wwww 06/13 10:41
721Fhangyaku: 原來是只差幾刀 06/13 10:41
722Fzxc01301: Ya 06/13 10:41
723Fdnlegend729: 無聊 我要看到血流成河啊 06/13 10:41
724FWeiHsiang76: 天慧完全沒動耶wwwww 06/13 10:41
725Fkevin50605: 這天彗龍 最後累得不想打了== 06/13 10:41
726Fr30307: 等等天彗你怎麼站著給他打 06/13 10:41
727Fsotali306: 感覺沒打多久啊?? 06/13 10:41
728Fszx5986902: 血真的超少 06/13 10:41
729Ftonyhsu0822: 演員站著給打耶 06/13 10:41
730Fhomeboy528: 他剛是不是睡醒發呆一下就被打死了XD 06/13 10:41
731Fznck: PP比你們想得還有料 06/13 10:41
732Fnoreg10116: 天彗之恥== 06/13 10:41
733Fantonio019: 人家剛睡醒呆了點正常 06/13 10:41
734Fhangyaku: 天慧:我想下場了,快打 06/13 10:41
735Fmimei50510: PP太猛了 06/13 10:41
736Fcaka5566: 天慧有夠讓... 06/13 10:41
737FJohnsonj: 今天的PP猛喔 SC時間一下剛好引流廢文XD 06/13 10:41
738FTrickerTewi: PP該不會是MH奇才吧... 06/13 10:41
739Fjs870102: 不講武德 人家剛睡醒還在茫啦 06/13 10:41
740Fedith1337: 妃蜘蛛>天慧龍== 06/13 10:41
741Fa502152000: #相信天使 06/13 10:42
742Fsotali306: 彗醬你在幹嘛 06/13 10:42
743Freader2714: 搞不好小金 06/13 10:42
744Fvanceliu: 還是沒玉Y 06/13 10:42
745Fguolong: 單任務多怪的血比較少 06/13 10:42
746FTrickerTewi: 而且天使裝應該沒到頂 06/13 10:42
747Fbpolo5566: 弱特3 get 06/13 10:43
748Fkevin50605: 原來Calli今天的SV不是工商哦 06/13 10:43
749Fwhorwells: 補了一下眠 狗居然沒玩完就收了 484老了XD 06/13 10:43
750Fhangyaku: 她的裝看起來像2,0制服 06/13 10:43
751Ffgh123d: 欸不是 等等 06/13 10:43
752FTrickerTewi: 其實核心技能有出來啦 06/13 10:43
753Ffgh123d: 見切6弱特3是三小 06/13 10:43
754Fr30307: 狗之前的長休大概是真的有影響到身體吧 06/13 10:43
755Ffgh123d: *弱特2 06/13 10:44
756Fasasas0723: 爆擊是要堆多高拉www 拿迅龍刀捏 06/13 10:44
757FWeiHsiang76: 弱特2而已啦 06/13 10:44
758FMomoSaiko: 拿迅龍帶見切6... 06/13 10:44
759Fguolong: 這1.0太刀制服啦 06/13 10:44
760FGoBelieve: 太神啦居然贏了 06/13 10:44
761Fszx5986902: 都配到見切7+弱特3 感嘛還用迅龍太. 06/13 10:44
762Fzealotjacky: 他拿迅龍 再考慮沒有刀刀弱點其實很合理吧 06/13 10:44
763Ffgh123d: 想著30%打弱特三( 06/13 10:44
764Fguolong: 她穿很久了 06/13 10:44
765FTrickerTewi: 這樣不打弱點也還好 06/13 10:44
766FWeiHsiang76: PP基本上還是會打到白字部份,配見切拉高爆擊率吧 06/13 10:44
767Fasasas0723: 1.0也不是這樣穿阿ww 06/13 10:44
768Fdibblo: 剛復原還是不要太勉強的好.. 06/13 10:44
769Ffgh123d: 不打弱點見切全換攻擊就好了啊wwww 06/13 10:45
770Fchen31502: 這代弱特和見切等價 超怪 06/13 10:45
771Fbpolo5566: 找個時間換轟隆或霞龍太刀就完美了(欸 06/13 10:45
772Fszx5986902: 見切7+迅龍太就接近百爆了 幹嘛還要弱特 06/13 10:45
773FWeiHsiang76: 提到哈洽瑪了 06/13 10:45
774Fdnlegend729: 看看他的打點 還是拿迅龍吧 06/13 10:45
775Fwindess0823: 要講哈洽馬了 06/13 10:45
776Fray10133: PP真暖 06/13 10:45
777Ffgh123d: PP拿霞龍應該會比較好 一場兜割沒幾次 06/13 10:45
778Fevilurd: ....只說要找她吃飯... 06/13 10:45
779FMits5190: PP關台 06/13 10:46
780Fr30307: 暖言暖語後的笑聲太癡漢了吧w 06/13 10:46
781Ffgh123d: 關台前還發出一個可愛的聲音ww 06/13 10:46
782Fcaka5566: 有找就不錯了 06/13 10:46
783Fwindess0823: 目前還是說要大家安心的等著他 06/13 10:46
784Fsotali306: 哈洽馬自己煮 06/13 10:46
785Fvanceliu: 別 06/13 10:46
786Fantonio019: 回來了 06/13 10:46
787FDrPJJ: 跟Kiara對戰後的SV台是自主開的,兩人之後還要參加錦標賽。 06/13 10:46
788Fwindess0823: 三者面談了 看天使會說啥 06/13 10:46
789Fa502152000: 進SC時間 06/13 10:46
790Fwuwuandy: 見切6很虧耶 第七等+10% 06/13 10:47
791Fsotali306: 死神也引流嗎? 06/13 10:47
792Ffgh123d: 見切7或是弱特三選一個都比較好 但是兩個都沒滿ww 06/13 10:48
793FTrickerTewi: 挖 這樣兔子下次打天會是不是也要來個高難度任務了 06/13 10:48
794Ftudo0430: 死神感覺要被爆打了 06/13 10:49
795Fguolong: 會研究主流配裝的大概只有狐跟公主,齁的大多是自成流派 06/13 10:49
796FFatesoul: SV卡面畫風沒統一喔 06/13 10:49
797FDrPJJ: Calli有推文說SV不會打太久,要大家也去看meme review 06/13 10:50
798FWeiHsiang76: 兔子會看攻略配裝 06/13 10:50
799Ffgh123d: 風格差滿多的 06/13 10:50
800Fkuoyipong: SV卡面畫師很多 06/13 10:50
801Fhankedwu: 卡面有很多畫師負責 畫風都不一樣 06/13 10:50
802Fmko00456: 兩個亂源要開台拉 06/13 10:50
803Fkuoyipong: 說沒統一也是沒統一沒錯,繪師很多 06/13 10:50
804Fsuper1937: 請問昨天羊的招牌遺失,後來有找到嗎 06/13 10:50
805Fszx5986902: PP這套也是主流阿 只是她配半套 這套應該用轟太 06/13 10:50
806Fxkiller1900: GG 06/13 10:51
807Fnomorethings: 死神還能撐十分鐘嗎 06/13 10:51
808Fxkiller1900: 要死啦 06/13 10:51
809Fsotali306: 看到了感謝 暖死神 06/13 10:51
810Fwindess0823: 天使沒吃早餐耶 餓惹 06/13 10:51
811Fa502152000: 天使沒吃早飯啊w 話題就轉到吃中飯了 06/13 10:51
812Fnomorethings: 燒線撐時間好了(誤 06/13 10:51
813Frxsmalllove: 掰掰死神ww 06/13 10:52
814Fyukimura0420: 感覺PP睡沒很久就爬起來了 06/13 10:52
815Ffgh123d: 台是開台前四五個小時設的 應該就只睡一下吧 06/13 10:52
816Fkuoyipong: 理論上謝幕死打清淨教優開,可是死神不會打 XD 06/13 10:52
817FJETPOWER: 舊meta一樣噁 06/13 10:52
818Fkuoyipong: 現在SV設計太複雜了新手一定頭很痛 06/13 10:53
819Fnomorethings: 欸不是現在再一場肯定來不及看吧死神w 06/13 10:53
820Fa502152000: 哪個聊天室講做香蕉汁用手的 天使是可以啦 06/13 10:53
821FWeiHsiang76: 天使昨天爆睡到晚上啊 作息混亂 06/13 10:53
822Ffgh123d: 也不算爆睡到晚上啦 下午去錄音回家才睡 06/13 10:54
823Fa502152000: 吃香蕉+喝牛奶=胃中香蕉汁 謎理論 06/13 10:54
824Fkuoyipong: 謝幕死一場大概15分鐘,死神一定來不及 XD 06/13 10:55
825Feric80135: 昨天錄音回來還要去處理哈洽碼的事,作息混亂 06/13 10:55
826FSeijyaKijin: PP就是這麼暖 06/13 10:55
827FKohran: https://i.imgur.com/3ZyPh9L.jpg 06/13 10:55
828Fps0grst: PP太刀有一般人水準了嗎 06/13 10:56
829Ffgh123d: 算有吧 大概 06/13 10:56
830FKohran: 水母老師畫捏捏 06/13 10:56
831FDrPJJ: 可能會稍微overlap,但會引過去啦 06/13 10:56
832Fotakufish: 有了吧 路邊也團都不一定有PP強 06/13 10:57
833Fvanceliu: 過風雷神之前就差不多是正常人等級了 06/13 10:57
834Ffgh123d: PP的太刀打習慣的古龍應該可以15~20左右打完 06/13 10:57
835Fhsiehfat: 坐等meme 06/13 10:58
836Fa24606: goog AmexCoco 06/13 10:58
837Fmekiael: 先拿飲料等會長 06/13 10:58
838Fxkiller1900: 謝幕死對她來說太難了 06/13 10:58
839Fbpolo5566: 會長台兩萬五千人等待中 06/13 10:58
840Fchen31502: 看pp太刀一路練到這個程度 真的蠻感動的 06/13 10:59
841Flouispencer: 孔雀那是泳裝喔!也太色! 06/13 10:59
842Ftudo0430: 死神在幹嘛ww 06/13 10:59
843Fqqqaz9527tw: let's goooo 06/13 10:59
844Ffairymomo: 剛剛就在想幹嘛不要開場放食夢饃w 06/13 11:00
845Fa5545855: 感覺今天會卡 potplayer記得先準備好 06/13 11:00
846Fbenson1212: 會走路的謎因要來啦 06/13 11:00
847Flider2125: MEME REVIEW回 (1/3) 06/13 11:00
848FdWoWb: 聊天室 POT都準備好啦~快開快開 06/13 11:00
849Fderek921212: 不要倒數meme次數啦www 06/13 11:00
850FArctica: 全裸待機阿梅COCO 06/13 11:01
851Fyoyo99931: 待 06/13 11:01
852Fhankhu: 蛇叔生氣啦 06/13 11:01
853Fgn01370926: 你不要再....提醒我嘞QQ 06/13 11:01
854Ffu1vu03: Last meme~ QQ 06/13 11:01
855Fkuoyipong: 謝幕死算是簡單的了,雖然最簡單的是載具龍 XD 06/13 11:01
856Fbpolo5566: 搞不好中間會加場阿QQ 06/13 11:01
857Fa502152000: 來了! 06/13 11:01
858Fseanmom: 時空會長開 06/13 11:01
859Fxkiller1900: 兩張貘將軍 06/13 11:01
860Fdydark: 開拉 06/13 11:01
861Fqwefghzxc: meme 開 06/13 11:01
862FdWoWb: 開 06/13 11:01
863FSeijyaKijin: 死神引流 06/13 11:01
864Fznck: 開始了 06/13 11:01
865Ffu1vu03: 圖笑死 06/13 11:01
866Fmimei50510: 開 06/13 11:01
867Ffgh123d: www笑死 06/13 11:01
868FSeijyaKijin: 圖XD 06/13 11:01
869FdWoWb: 草 OP圖 06/13 11:01
870Fsotali306: 開場虐阿梅 06/13 11:01
871Frotusea: 開了 06/13 11:01
872Fwl02390852: 會長開 06/13 11:01
873Fseanmom: 原來AME也看這種 SHIT WWWWW 06/13 11:01
874Frxsmalllove: 會長開! 06/13 11:01
875FHaruka4141: 草 06/13 11:01
876Fa502152000: 圖www 06/13 11:01
877FRavenLin: 阿梅www 06/13 11:01
878Fkevin50605: 待機圖wwww 06/13 11:01
879Fbpolo5566: 阿梅被抓起來了XD 06/13 11:01
880Fnoreg10116: XDDDDDDDDDDDDDDDDDD 06/13 11:01
881FArctica: 圖示在霸凌阿梅嗎ww 06/13 11:01
882Feric80135: 怎麼覺得圖應該反過來www 06/13 11:01
883Fjasson: OP圖www 06/13 11:01
884Faulaulrul4: 中間那張www 06/13 11:01
885Fqqqaz9527tw: you little shit AME WWWW 06/13 11:01
886Fdargen78: 這封面wwww 06/13 11:01
887Fa5545855: 笑死 捏爆 06/13 11:01
888Fdoomhammer: 下馬威XD 06/13 11:01
889Fmimei50510: 阿梅被抓爛 06/13 11:01
890Fyoyo99931: 捏爆 06/13 11:01
891Fawenracious: 職場霸凌 06/13 11:02
892Fweng62104: 人家待退 給尊重w 06/13 11:02
893FuohZemllac: 超兇XD 06/13 11:02
894Fdydark: answer me wwwww 06/13 11:02
895Fcj8470043: 封面笑死 06/13 11:02
896Fbpolo5566: 阿梅XD""" 06/13 11:02
897Fa24606: XDDDD 06/13 11:02
898Ftsubasawolfy: answer me little shit 06/13 11:02
899Fray10133: 兇 06/13 11:02
900FdWoWb: 超兇前輩(O 06/13 11:02
901Fchon34: 這混沌的片頭 真是 06/13 11:02
902Fznck: 你們怎麼阿梅會怕的錯覺 06/13 11:02
903Fkamisanma: Ame剋星 06/13 11:02
904Fxkiller1900: GGGG 06/13 11:02
905Fseanmom: 雙BOING 06/13 11:02
906Fa502152000: 開始了MDFK 06/13 11:02
907FSeijyaKijin: GM MDFK 06/13 11:02
908FRavenLin: MDFK 06/13 11:02
909Fvolf1065015: 這是霸凌後輩現場www 06/13 11:02
910Fqqqaz9527tw: MDFK!!! 06/13 11:02
911FdWoWb: FK ww 06/13 11:02
912FBOSTONstyle: 阿梅會罵吧 06/13 11:02
913Fnoreg10116: 阿梅 別裝喔 06/13 11:02
914Fseanmom: 開場FXXK 06/13 11:02
915Fwl02390852: GNMDFK 06/13 11:02
916FSeijyaKijin: Ameeeeeeeeee 06/13 11:02
917Fray10133: 發科(小聲 06/13 11:02
918Fbenson1212: 第一句話 fuxker ... 06/13 11:02
919Fdogluckyno1: MDFK 06/13 11:02
920Ftsaodin0220: MDFK 06/13 11:02
921Fth123: 阿梅完全不用釣w 06/13 11:02
922Fantonio019: gooooood morning mother... 06/13 11:02
923Fkiato: MDFK 06/13 11:02
924Faulaulrul4: Ame裝嫩w 06/13 11:02
925Fderek921212: 阿梅沒在怕的啦www 06/13 11:02
926Fwl02390852: *M 06/13 11:02
927Fyu1111116: 一開場就混亂wwww 06/13 11:02
928FLADKUO56: 阿梅本來就沒在裝的吧w 06/13 11:03
929FSeijyaKijin: 完了完了 阿梅來了 06/13 11:03
930Fsuper1937: 阿梅絕對比較兇吧 06/13 11:03
931FLAODIE: 真正的mdfk 06/13 11:03
932Fhanghangboy: 化合物X 06/13 11:03
933Fray10133: 胸部枕頭 06/13 11:03
934FArctica: 感覺可以可以可以可以~~ 06/13 11:03
935Fkamisanma: Ame再裝啊 06/13 11:03
936Fareysky: chemical X 06/13 11:03
937Fchon34: 阿梅本身不是就是 06/13 11:03
938FSeijyaKijin: HIC 06/13 11:03
939Freader2714: I can't do on command~ 06/13 11:03
940Ftudo0430: hic 06/13 11:03
941Fanchun: 要變混亂抬了XD 06/13 11:03
942Fbpolo5566: 可是會長是前輩 還是要裝一下ww 06/13 11:03
943Fcaka5566: 阿梅可愛 06/13 11:03
944Fray10133: HIC刷起來WWW 06/13 11:03
945Fprismwu: 今天也是清楚阿梅模式 06/13 11:03
946FOoxxeeoo: 到別人的場子,要低調點 06/13 11:03
947Fseanmom: 穿太多啦AME 今天會擺上腳嗎 06/13 11:03
948Fa502152000: HIC刷爆 06/13 11:03
949Fderek921212: hic 06/13 11:03
950Fkaho894: HIC 06/13 11:03
951Fmimei50510: 阿梅今天會清純嗎XD 06/13 11:03
952Fxkiller1900: 每日任務1000/1 06/13 11:03
953Fsotali306: 會長威壓太強 06/13 11:03
954Fdogluckyno1: 問打嗝 06/13 11:03
955Facceler1220: 幹嘛裝 會長都不裝了 06/13 11:03
956Fb223456x: HIC 06/13 11:03
957Fzealotjacky: 今天擺腳是要跨在會長身上嗎 06/13 11:03
958Fa1216543: 吃空氣 06/13 11:03
959Fchon34: 阿梅:沒以為你是前輩 我瘋起來.... 06/13 11:03
960Fps0grst: 在JP眼中阿梅很清楚吧 06/13 11:04
961FRavenLin: 阿梅今天好清楚 06/13 11:04
962Fqqqaz9527tw: 4 06/13 11:04
963Fasazen: 阿梅混沌準備中 06/13 11:04
964Fcaka5566: 只要不在自己台 都是清純代表的阿梅 06/13 11:04
965Faaron1902046: 今天擺出腳的話不就跨在coco身上 06/13 11:04
966Fderek921212: 看圖層能不能跨在會長肩膀上(x 06/13 11:04
967Fcorlos: 阿梅只有皮清楚而已 06/13 11:04
968Fa5545855: chemical x 06/13 11:04
969Fjeeyi345: 可惡 被holotools搞了 漏看前面 06/13 11:04
970FJETPOWER: 幹 這什麼聊天室 06/13 11:04
971FSeijyaKijin: 阿梅:pardon 06/13 11:04
972Faaron1902046: 皮清楚(自帶毒品 06/13 11:04
973Fging1995: なるほど 06/13 11:04
974Freader2714: 那魯齁都 06/13 11:04
975FdWoWb: 哈齁(X 06/13 11:04
976FOoxxeeoo: Ame應該會吐槽meme圖吧! 06/13 11:04
977Fwacau: 是不是請錯人了啊?這跟我認識的Ame不太一樣.... 06/13 11:04
978Fnoreg10116: 笑死 06/13 11:04
979Fzealotjacky: 說Ame清純等一下她就換衣服抓屁股給你看 06/13 11:04
980Fhankhu: 沒吧 JP只要有看初配信都知道是渾沌吧 06/13 11:04
981Fznck: 阿梅連動會裝清純 只有一個人才會解放 06/13 11:04
982Fps0grst: 孔雀泳裝? 06/13 11:04
983Fcj8470043: 笑死 06/13 11:04
984Fdarren2586: 最混沌的魂配上最清楚的皮 06/13 11:04
檔案過大!部分文章無法顯示
985FJimmyliuone: 這張沒有睡覺露欸 06/13 17:38
986Fzerobn: 這就很普通 不整齊也不亂 06/13 17:38
987Feric20601: 危 06/13 17:38
988Fboreguy: 後面好像有抱枕 06/13 17:38
989Fa2470abc: 這還不夠亂??? 06/13 17:38
990Fznck: 那些噴灌是做甚麼的? 06/13 17:38
991Ftsaodin0220: 不敢客家了 06/13 17:38
992FDonnyDon: 等一下去查一下www 06/13 17:38
993Flinisthebest: H本 06/13 17:38
994Fcoffeedemon: 跟我桌上其實蠻像的... 如果沒有居家辦公的時候 06/13 17:38
995FNanoDesu: 這是趁機推坑吧 我去google看看 06/13 17:38
996FMits5190: 桌子我相信是真的 06/13 17:38
997Fzerobn: 露剛剛還說晚點去看w 06/13 17:38
998Fray10133: 這是一般亂 06/13 17:38
999FSeijyaKijin: 召喚巨嬰 06/13 17:38
1000Ftsukasaxx: 巨嬰又來了 06/13 17:38
1001Fcrayon1988: H本XDD 06/13 17:38
1002Ftudo0430: 兔子很喜歡這個召喚獸吼 06/13 17:38
1003Fzerobn: 有齁星 06/13 17:39
1004Fdiabolica: 前幾個是髒 這是亂 06/13 17:39
1005Flavendin82: 兔子叫他巴哈姆特 06/13 17:39
1006Fqsx889: 露:八嘎八嘎 06/13 17:39
1007Flsd25968: 在說這個人是不是職人之類的 因為桌上有一些工具 06/13 17:39
1008Feric20601: 發現抱枕了XD 06/13 17:39
1009Fmitkuchen: 只是模型佬吧w 06/13 17:39
1010Fqwefghzxc: 抱枕www 06/13 17:39
1011Fray10133: 感覺這場難打 06/13 17:39
1012Fkiato: 抱枕 06/13 17:39
1013FxGx: 危! 06/13 17:39
1014Fkress: 這抱枕.. 06/13 17:39
1015Fmurderer2013: RBC? 06/13 17:39
1016Fboreguy: 三個一樣的欸 06/13 17:39
1017Ftsaodin0220: 兔子會不會輸到破產XD 06/13 17:39
1018Fxsdferty035: 抓到 06/13 17:39
1019FDonnyDon: 抱枕是哪個角色? 06/13 17:39
1020Fopcp: 抓到 抱枕 06/13 17:39
1021Fhankhu: 槍擊好痛 06/13 17:39
1022Fkiato: 好像rbc? 06/13 17:39
1023Fdiabolica: 兔子要卡多久勒 06/13 17:39
1024Flinisthebest: 抓到 06/13 17:39
1025Fbenny614017: 抱枕買3個,懂喔 06/13 17:39
1026Fkl40: 三個一樣的抱枕w 06/13 17:40
1027Fray10133: 還再暈阿 06/13 17:40
1028Fzerobn: 船長 06/13 17:40
1029Flsd25968: STARS的東西 06/13 17:40
1030Flycs0908: moona all of me 06/13 17:40
1031Fmasamune1019: 抓到 出軌xddd 06/13 17:40
1032Fbenny614017: 齁星 06/13 17:40
1033Feric20601: SON跟船長XD 06/13 17:40
1034FxGx: 船長跟齁星w 06/13 17:40
1035Fparax: 齁星 06/13 17:40
1036FMits5190: 發現船長 06/13 17:40
1037Fa2936328: 男團的 06/13 17:40
1038Fqwefghzxc: 齁星 06/13 17:40
1039Fhankhu: 兔子還是一點都沒有想解暈的意思 06/13 17:40
1040Fyoonalim: 出軌囉 06/13 17:40
1041FHydran: 男團耶 06/13 17:40
1042Fkiato: 齁星 06/13 17:40
1043Fmasamune1019: 這個本格的DD 06/13 17:41
1044FDonnyDon: 露上次連律可漢字都不會唸 06/13 17:41
1045Flycs0908: 是天真不是律可啦 06/13 17:41
1046Fponytail0048: moona唱爆ww都42首了 06/13 17:42
1047Fzerobn: 會長w 06/13 17:42
1048Fdiabolica: QQ 06/13 17:42
1049FNanoDesu: 找碴遊戲 發現會長 06/13 17:42
1050FSechslee: moona好像要唱70首 06/13 17:42
1051FMits5190: 露也有 06/13 17:42
1052Fna4835ant: 抓到DD 06/13 17:42
1053Fyoonalim: 森77www 06/13 17:42
1054Fbenny614017: 這位做了/買了蠻多貼紙的 06/13 17:42
1055Fzerobn: 一直避開那本w 06/13 17:42
1056Fnoreg10116: 晃屁www 06/13 17:42
1057Fmitkuchen: 70? 06/13 17:42
1058Fa2470abc: 。..... 06/13 17:42
1059Fzerobn: 這是倉庫吧= = 06/13 17:43
1060FWeiHsiang76: https://reurl.cc/5rpy6q PP:各位A醬還未婚喔(X) 06/13 17:43
1061Fmasamune1019: 什麼本啊 剛剛沒看到 06/13 17:43
1062Fkiato: 這......有點狂 06/13 17:43
1063Flycs0908: 這是地震過後嗎 06/13 17:43
1064Fhankedwu: 兔子少一個人也沒去地下道 打起來應該很痛苦 06/13 17:43
1065Fray10133: 唱三小時了 好強 06/13 17:43
1066Ftieneun: 這是怎麼走進房間的.... 06/13 17:43
1067Fgeruhsam: ...... 06/13 17:43
1068Fboreguy: 幹這個地震吧XD 06/13 17:43
1069Flsd25968: 嘆息之牆 06/13 17:43
1070FDelta03: 這真的是房間嗎 06/13 17:43
1071FMits5190: 這明顯是故意的啦太扯了 06/13 17:43
1072FJimmyliuone: XDD 06/13 17:43
1073Fqwefghzxc: 也太多書 06/13 17:43
1074Fqsx889: ......... 06/13 17:43
1075Flinisthebest: 三.........小 06/13 17:43
1076Fa2470abc: ...... 06/13 17:43
1077Fnoreg10116: 幹這垃圾屋吧== 06/13 17:43
1078Fsome61321: 這個不錯 超亂卻不髒XDD 06/13 17:43
1079Fmurderer2013: 這 純粹當倉庫 不是拿來住的吧 06/13 17:43
1080Fyoonalim: 這是有屯物症了吧 06/13 17:43
1081Fparax: 垃圾堆 06/13 17:43
1082Fa2936328: 認真有亂 06/13 17:43
1083Fray10133: ??????? 06/13 17:43
1084Frock2345: ???? 06/13 17:43
1085Flolicum: 幹 這根本倉庫了吧 06/13 17:43
1086Fcoffeedemon: 這房間好大 要弄亂很不容易 06/13 17:43
1087Fhankhu: 阿火一次大概也就40多吧? 06/13 17:43
1088Fhasroten: 這是倉庫吧== 06/13 17:43
1089Fzxc123270: 他們是故意弄亂的吧 為了上直播 06/13 17:43
1090Fvct886: 今天50吧 改天70 06/13 17:43
1091Feric20601: 這怎麼移動 06/13 17:43
1092Fkress: 好多剛普拉 06/13 17:43
1093Fbeldy1202: 這遇到地震喔 06/13 17:43
1094Flsd25968: 這是模型玩家吧 很多工具 06/13 17:43
1095Fmasamune1019: 這個是被震完還是剛被砸完 06/13 17:43
1096Fznck: 模型職人 06/13 17:43
1097FMits5190: 不然就是他們家的儲物間 06/13 17:43
1098Fqwefghzxc: 原來是模型? 好像不是書 06/13 17:43
1099Fchien955401: 房間? 06/13 17:43
1100Feric20601: https://i.imgur.com/XNviPFr.jpg 有人找到了 06/13 17:43
1101Fa28095448: 這到底要怎麼進去 06/13 17:43
1102Fdiabolica: 這故意的吧 連路都沒有 06/13 17:43
1103Fzseineo: 很多模型的盒子 06/13 17:43
1104Flolicum: 就問你要睡哪 06/13 17:43
1105Fandy776661: 兔子要翻車囉 06/13 17:43
1106Flavendin82: wwwwwwww 06/13 17:43
1107Ftsaodin0220: 想找雞雞 不能用 06/13 17:43
1108FNanoDesu: 地震後很貼切XD 06/13 17:44
1109FAllenk: 晚上不上班內 06/13 17:44
1110Flavendin82: 還想叫雞阿兔子 06/13 17:44
1111Ftudo0430: 雞晚上不能召喚ww 06/13 17:44
1112Flycs0908: 是說剛彈迷怎麼可能把辛苦組好的放成這樣 06/13 17:44
1113FMits5190: 都模型的盒子啊 06/13 17:44
1114Fsome61321: 床在哪啊 06/13 17:44
1115Fbenny614017: 說不定模型都沒拆封 06/13 17:44
1116Frxsmalllove: 這個亂的厲害 06/13 17:44
1117Fmurderer2013: Moona - see you again .... 06/13 17:44
1118Fray10133: moona這首... 06/13 17:44
1119Fp7788995: 雞:阿我就不上夜班啊 06/13 17:44
1120Fhankhu: 又是see you again 06/13 17:44
1121FMomoSaiko: see you again 06/13 17:44
1122FTFKC5566: QQ 06/13 17:44
1123Fchi791103: Moona...真要這首? 06/13 17:44
1124Fb77889999: see you again 06/13 17:45
1125Fnihau: QQ 06/13 17:45
1126Flycs0908: moona see u again 又再逼哭人了XD 06/13 17:45
1127Fa2936328: 足立撐住了 06/13 17:45
1128FJunShyang: QAQ 06/13 17:45
1129Ffrozenstar: OMG 這首... 06/13 17:45
1130FMits5190: 這是儲物間啦如果是睡覺的怎麼可能堆到沒地方睡 06/13 17:45
1131FSeijyaKijin: QQ 06/13 17:45
1132Ftsaodin0220: 泡槍 06/13 17:45
1133Fgeruhsam: Moona ..... QQ 06/13 17:45
1134FSoheee: moonaaaaaaaaaaaaaaaaaaaaaaaaaaaa 06/13 17:45
1135Fzerobn: 一堆模型盒耶 06/13 17:45
1136Fdigitai1: QQ 06/13 17:45
1137FMits5190: 不然就故意的 06/13 17:45
1138Feric20601: 找到床了 06/13 17:45
1139Flinisthebest: 這樣能睡??? 06/13 17:45
1140Fkurumi999: 就倉庫吧,睡其他地方 06/13 17:45
1141Fben82556: MOONA: 今天我唱爆 06/13 17:45
1142Flycs0908: 上次可可歌回有唱這首嗎 06/13 17:45
1143Fa2936328: 石尾田真強 06/13 17:45
1144Flolicum: 太多模型盒了吧 06/13 17:45
1145Ffaratia: Moona唱禁忌之歌QAQ 06/13 17:45
1146Fsiann: 該不會真的是地震後吧 06/13 17:46
1147FxGx: https://www.comic-earthstar.jp/detail/akuma/ 剛剛那本書 06/13 17:46
1148Fkiato: 這倉庫了吧ww 06/13 17:46
1149Fhankhu: 我記得有 06/13 17:46
1150FSeijyaKijin: 會長有雜談哼個幾句 06/13 17:46
1151Flolicum: 也不是說好好堆起來的模型盒 都壓爛了幹嘛不丟掉 06/13 17:46
1152Fmax005: 兔子這邊就打成這樣 期待雙島把兔子打到崩潰了w 06/13 17:46
1153FMits5190: 那些盒子可能是空的東西已經組好放在房間裡東西都丟這 06/13 17:46
1154Fsome61321: 這三小 06/13 17:46
1155FSoheee: 這ikea ? 06/13 17:47
1156Fapple83709: Moona… 06/13 17:47
1157Fgeruhsam: 這房間也太漂亮了吧 06/13 17:47
1158Ftudo0430: 這個反差超大w 06/13 17:47
1159Flolicum: 哇這個IKEA系的清香房間 06/13 17:47
1160Fs302520: 這無印良品樣品屋吧 06/13 17:47
1161FSechslee: 這太乾淨了吧 06/13 17:47
1162Fmurderer2013: 不符合主題 out 06/13 17:47
1163Fyoonalim: 這是理想房吧ww 06/13 17:47
1164Fboreguy: 這投錯企劃吧 06/13 17:47
1165Fqwefghzxc: IKEA www 06/13 17:47
1166Fkiato: 這個舒服 06/13 17:47
1167Fzerobn: 休息時間w 06/13 17:47
1168FMits5190: 這房間有品味哦 06/13 17:47
1169FReficuly: 少一個隊友還是有差… 06/13 17:47
1170Fsuper1937: 無印良品樣品屋 +1 06/13 17:47
1171Fchien955401: 這是飯店吧? 06/13 17:47
1172FNanoDesu: 應該是休息時間w 06/13 17:47
1173Feric20601: 中場休息 06/13 17:47
1174Fray10133: 這無印風 06/13 17:47
1175Fkress: 這飯店等級了吧 06/13 17:47
1176FTFKC5566: 這房間太讚了吧 06/13 17:47
1177Flinisthebest: 業配喔 ikea 06/13 17:47
1178Ftsaodin0220: 錯棚? 這ikea樣品屋吧 06/13 17:47
1179Flycs0908: A醬結婚囉? 看到PP的推文 06/13 17:47
1180Fmimei50510: 這IKEA範例? 06/13 17:47
1181Fxsdferty035: 投錯企劃了吧XD 06/13 17:47
1182FDelta03: 撐不住啦,moona這唱腔都快哭了 06/13 17:47
1183Fcoffeedemon: 回san值用的照片 06/13 17:47
1184FMits5190: 只是這房怎麼有綠綠的東西 06/13 17:47
1185Fnoreg10116: moonaaaaaaaaaaaaaaa QQ 06/13 17:48
1186Fa28095448: 還貼壁紙 06/13 17:48
1187Fray10133: 恭喜aーちゃん結婚(※並沒有結婚) 06/13 17:48
1188Fs302520: 社畜仔,一堆襯衫www 06/13 17:48
1189FxGx: 這間房間看起來就不像人在住的啊? 06/13 17:48
1190Fyukimura0420: PP:A醬恭喜結婚(沒結婚) 06/13 17:48
1191Flolicum: 真的是歐蝦雷 06/13 17:48
1192Fkress: 還有芳香噴霧器 06/13 17:48
1193Fhasroten: 這房間是在炫耀嗎wwwwww 06/13 17:48
1194Fbenny614017: 無印良品全套 06/13 17:48
1195Flsd25968: 感覺像是飯店房間啦 06/13 17:48
1196Fa2470abc: 樣品屋 06/13 17:48
1197Fzenshioyio: 瘋狂溢補的兔子 06/13 17:49
1198Fray10133: 這採光真好 06/13 17:49
1199Fboreguy: 一日短租XD 06/13 17:49
1200FMits5190: 樣品屋也能投稿啊 06/13 17:49
1201Fsome61321: 這房間挺無聊的沒甚麼好介紹的 06/13 17:49
1202Fjeeyi345: :-( 回家 看不了 06/13 17:49
1203Fa2470abc: 這個光線好到不像真的 06/13 17:49
1204Flycs0908: bleeding love欸! 國小超愛聽 06/13 17:49
1205FNanoDesu: 好了 回本番 06/13 17:49
1206Fmurderer2013: 這還好辣 06/13 17:49
1207Fps0grst: 剛才那個是樣品屋吧w 06/13 17:49
1208Fa2936328: 這個也還好 06/13 17:49
1209FSoheee: 這還能接受 06/13 17:49
1210Fa2470abc: cl35p g 06/13 17:49
1211FDelta03: 真的會有人在床邊放蠟燭嗎www 06/13 17:49
1212FMits5190: 櫃子那個超恐怖的 06/13 17:49
1213Flsd25968: 還可以吧 06/13 17:49
1214Fkiato: 感覺還行ww 06/13 17:49
1215Ftudo0430: 命案現場?! 06/13 17:49
1216Fparax: 普通 06/13 17:49
1217Fray10133: 清水模壁紙? 06/13 17:50
1218Fchatoff: 衣櫃裡... 06/13 17:50
1219FNanoDesu: 衛生紙投準好嗎== 06/13 17:50
1220Fcoffeedemon: 這是沒有床嗎... 06/13 17:50
1221Fa2470abc: 很真實的房間 06/13 17:50
1222Fqwefghzxc: 小亂 不過跟前面幾個比好太多了xd 06/13 17:50
1223Fzerobn: 床在地上阿 06/13 17:50
1224Fboreguy: 螢幕上在打魔物XD 06/13 17:50
1225FReficuly: AZKi開 06/13 17:50
1226Fsome61321: 櫃子裡的露有點嚇人 06/13 17:50
1227FFatesoul: 拉姆 06/13 17:50
1228Fcoffeedemon: 06/13 17:50
1229Fkress: 跟前面幾個比起來好多了 06/13 17:50
1230Ffish770130: 這衣櫥也太有壓力 06/13 17:50
1231FMits5190: 櫃子很可怕啊 06/13 17:50
1232FSoheee: 放蠟燭會阿 香氛蠟燭 06/13 17:50
1233Frxsmalllove: 差點恭喜A醬XD 06/13 17:50
1234Fmurderer2013: 這20分鐘內就可以很乾淨了 06/13 17:50
1235Flsd25968: 滑鼠墊w 06/13 17:50
1236FNanoDesu: ??? 還好啊 06/13 17:50
1237Fcoffeedemon: 那是睡袋吧XD 06/13 17:50
1238Fyukimura0420: PP那個應該是今天廣播的梗 今天是PP跟TMT 06/13 17:50
1239Fa2936328: 石尾田本來就這麼難打嗎w 06/13 17:50
1240Fzerobn: 鼠墊www 06/13 17:50
1241Feric20601: 這拉米的房間? 06/13 17:50
1242Fqwefghzxc: 滑鼠墊www 06/13 17:51
1243Fsome61321: 滑鼠墊平的? 很會喔 06/13 17:51
1244Fapple83709: 平的滑鼠墊 06/13 17:51
1245Ffish770130: 露滑鼠墊 06/13 17:51
1246Fkress: 滑鼠墊... 06/13 17:51
1247Fkiato: 等等 這個露放的角度 怪怪 06/13 17:51
1248Fxsdferty035: 滑鼠墊XD 06/13 17:51
1249Fchatoff: 滑鼠墊...危 06/13 17:51
1250FMits5190: 還有買露的娃娃 06/13 17:51
1251Fnoreg10116: 滑鼠墊太危險了 06/13 17:51
1252Fcoffeedemon: 滑鼠墊那樣感覺手都沒有包覆感 06/13 17:51
1253Fray10133: 可愛的露娃娃 06/13 17:51
1254Fmurderer2013: 酒鬼 06/13 17:51
1255Frock2345: 8+9蘭 06/13 17:51
1256Fparax: 美竹蘭 06/13 17:51
1257Ffish770130: 兔田酒 06/13 17:51
1258FNanoDesu: 有兔子 船長 06/13 17:51
1259Feric20601: 危 06/13 17:51
1260Fboreguy: 滿滿的酒 06/13 17:51
1261FMits5190: 都三期生的 06/13 17:51
1262Fa2470abc: 族長梅酒 06/13 17:51
1263FDelta03: 這個酗酒了吧www 06/13 17:51
1264Fsome61321: 露要怒吼了ww 06/13 17:51
1265Fzerobn: 危 06/13 17:51
1266Flsd25968: 原來是幫幫粉 06/13 17:51
1267Flinisthebest: 抓到 06/13 17:51
1268FxGx: DD仔 06/13 17:51
1269Fhasroten: 邦邦 06/13 17:51
1270Fcorlos: 海賊cos 06/13 17:51
1271Fzerobn: cosplay的女人 06/13 17:51
1272Fkiato: 耳膜警報 06/13 17:51
1273Frock2345: 怕 06/13 17:51
1274Fhasroten: 露的滑鼠墊 平的 06/13 17:51
1275Fnick1300043: 平 06/13 17:51
1276Fna4835ant: 關BGM了 危 06/13 17:52
1277Flycs0908: 百年梅酒左邊那個公仔是哪個角色? 06/13 17:52
1278FxGx: 滑鼠墊w 06/13 17:52
1279Ftudo0430: 海賊コスプレ女ww 06/13 17:52
1280FMits5190: 這個滑鼠墊 06/13 17:52
1281Fsome61321: 沒發現? 06/13 17:52
1282Fchien955401: 平的滑鼠墊 06/13 17:52
1283Flinisthebest: 好用墊子 06/13 17:52
1284Fcoffeedemon: 和平帶過了 06/13 17:52
1285Fps0grst: 露滑鼠墊 06/13 17:52
1286FMikuNoPantsu: 這是酒鬼吧 06/13 17:52
1287Fa28095448: 露西亞的滑鼠墊看起來真D好用 06/13 17:52
1288Fanthony2088: 船長 兔酒 06/13 17:52
1289FDonnyDon: 平的滑鼠墊www 06/13 17:52
1290Flycs0908: 拿吉他那個 06/13 17:52
1291FFatesoul: 陣頭蘭 06/13 17:52
1292Fkress: 那不是馬林吧? 06/13 17:52
1293FMits5190: 這人有沒有買菈米的酒 06/13 17:52
1294Fa5545855: azki live要開始了 06/13 17:52
1295Fmimei50510: 超多酒瓶XD 06/13 17:52
1296Fparax: 後面還有Roselia 06/13 17:52
1297Fcorlos: 桌子都好亂 06/13 17:52
1298FNanoDesu: 原來剛在施壓 沒注意到XD 06/13 17:52
1299FSeijyaKijin: QQ 06/13 17:52
1300Flycs0908: moona是不是哭了QQ 06/13 17:52
1301Frock2345: 寶可夢 06/13 17:52
1302Fsome61321: 看到了ww 06/13 17:52
1303FDICKASDF: 酒旁的是BGD的角色 CV是佐倉綾音 06/13 17:52
1304FxGx: 酒的左邊 美竹蘭 再左邊 弦卷心 06/13 17:52
1305FMits5190: 鍵盤前面還兩隻神獸 06/13 17:52
1306Fray10133: 應該還沒 06/13 17:52
1307Fmurderer2013: Moona? 06/13 17:53
1308Fyumel87: moona的高音好棒 06/13 17:53
1309Ftudo0430: boingboing?! 06/13 17:53
1310Fhxhjerry: 實用的滑鼠墊 06/13 17:53
1311Flolicum: 平滑 無阻力 電競首選 露西雅滑鼠墊 06/13 17:53
1312Flycs0908: 哦哦感謝 06/13 17:53
1313Ftuna333: QQ 06/13 17:53
1314FTFKC5566: QQ 06/13 17:53
1315Fyoonalim: 好多酒 06/13 17:53
1316Ftudo0430: 兔子贏了ww 06/13 17:53
1317FAllenk: 贏啦 06/13 17:53
1318Fhankedwu: 居然贏了 06/13 17:53
1319Fnoreg10116: 餓了 06/13 17:53
1320FBEDA: 無法理解怎麼能忍受這麼多喝完的瓶罐放在房內 06/13 17:53
1321FSoheee: moona又在喊餓了 06/13 17:53
1322Flolicum: 也太多strong zero了吧 06/13 17:54
1323Fa28095448: 酒這個應該是故意放的吧 06/13 17:54
1324Fa5545855: 那個酒不錯喝 06/13 17:54
1325Fhasroten: 這是訓練(X 06/13 17:54
1326Frxsmalllove: 酒鬼的話還好(? 06/13 17:54
1327Fandy776661: 直接踹老二 06/13 17:54
1328Flycs0908: 又是這種歌名XD 06/13 17:54
1329FReficuly: 比我房間的瓶子少了… 06/13 17:54
1330Fapple83709: Since u been gone… 06/13 17:54
1331Fwinklly: Moona還在超絕爆唱喔 06/13 17:54
1332Fcorlos: 初號機幹麼把自己3d放上來 06/13 17:54
1333FNanoDesu: omg 06/13 17:54
1334Fzseineo: 懶得丟很正常啊 ,我有時候也會堆一些瓶子才一起拿去丟 06/13 17:55
1335FNeptunia: Moona還有25首 06/13 17:55
1336Fgargoyles: 486感覺要滅了ww 06/13 17:55
1337Fmurderer2013: Moona應該會拚到50首吧 06/13 17:55
1338Fa5545855: 要唱到50首的感覺 06/13 17:55
1339FMits5190: 這也是故意的吧 06/13 17:55
1340Fsome61321: 喔喔喔這個 露躲在梯子上避難笑死 06/13 17:55
1341Fdreackes: 我小睡了一下起來後她還是在唱XD 06/13 17:55
1342Ftudo0430: 又一個垃圾堆w 06/13 17:55
1343Fapple83709: 這真的超亂… 06/13 17:55
1344Fcorlos: 都好亂 06/13 17:55
1345Fzerobn: 這很難進去耶 06/13 17:55
1346Fyoonalim: 爬樓梯ww 06/13 17:55
1347FxGx: 瓶子喝完放著 是為了一次丟啊! 06/13 17:55
1348Fmurderer2013: 這真的髒 06/13 17:55
1349Fa2936328: 垃圾丟地上到底是什麼樣的心態ww 06/13 17:55
1350Fkiato: 亂亂 06/13 17:55
1351Fanchun: 這能住人? 06/13 17:55
1352Fparax: 這房間在地下嗎 06/13 17:55
1353FLIONDOGs: 餅崩幫崩 06/13 17:55
1354Fkress: 這個就太真實到讓人覺得不太行... 06/13 17:55
1355FMits5190: 電腦桌亂成這樣不能忍啊 06/13 17:55
1356Flycs0908: 應該是住外面套房 像我飲料杯沒有集滿一個垃圾袋不會收 06/13 17:55
1357Fray10133: www 06/13 17:55
1358FDonnyDon: 便當不丟 這個沒救了 06/13 17:55
1359Frock2345: 鋁罐還套保鮮膜 06/13 17:55
1360Fzerobn: 外套還丟在垃圾上= = 06/13 17:55
1361Fyoonalim: 這人喝一堆肥宅水 06/13 17:56
1362Fwindowsill: 這房間真的不行 06/13 17:56
1363Fanthony2088: AZKI有聲音了 06/13 17:56
1364Falan3100: azki live開始了 06/13 17:56
1365Fcoffeedemon: 這可樂也太多== 一天是幾罐 06/13 17:56
1366Flycs0908: 如果先收進垃圾袋放在門口 還沒弄滿就被房東收走了 06/13 17:56
1367Fs302520: AZKi那邊要開始啦~~~ 06/13 17:56
1368Fna4835ant: 至少會把垃圾裝進垃圾袋www 06/13 17:56
1369Fkress: 衣服跟垃圾放一起就很... 06/13 17:56
1370Fboreguy: AZKi那邊有聲音了 06/13 17:56
1371Fkiato: 還有花陽www 06/13 17:56
1372FMits5190: 這些瓶瓶罐罐應該是收集的 06/13 17:56
1373Fa28095448: 那個滑鼠都要掉出去了 06/13 17:56
1374Fwinklly: 露這個….垃圾堆膩 06/13 17:56
1375FNanoDesu: Mic看起來蠻有樣子的? 06/13 17:56
1376Fsome61321: 好多百事可樂 06/13 17:56
1377Fzealotjacky: 幹 善熙早講啊 講了難波就不用跑了啊 06/13 17:56
1378Fvivianqq30: 3C你不早說== 06/13 17:56
1379Fasteea: THE 藏 06/13 17:57
1380FxGx: 如果收來拍照的 應該會被壓扁吧? 06/13 17:57
1381Fmurderer2013: Moona邊吃邊唱... 06/13 17:57
1382Fa910388: 都不早講= = 就不用燒了 06/13 17:57
1383Ftsaodin0220: 善熙的腿好香 06/13 17:57
1384FDelta03: 開吃 06/13 17:57
1385Fhasroten: moona是邊唱邊吃嗎XD 06/13 17:57
1386Fmax005: 早說這邊搞不好就不用燒起來了== 06/13 17:57
1387Fzerobn: 親分w 06/13 17:57
1388Fboreguy: 滿滿的AI 06/13 17:57
1389Fray10133: 你也懂早說 06/13 17:57
1390Feric20601: 好多絆愛 06/13 17:57
1391FLIONDOGs: AI醬 06/13 17:57
1392Fzealotjacky: 難波只要知道弟弟還活著大概就可以發誓守密了 06/13 17:57
1393Frock2345: 老愛 06/13 17:57
1394FxGx: moona無情開吃 06/13 17:57
1395Fysanderl: 這遊戲告訴我們 很多事其實都只是先講一講就能解決的事 06/13 17:58
1396FNanoDesu: 說亂是還好 感覺就 擠 06/13 17:58
1397Fa2936328: 上面是絆愛嗎 06/13 17:58
1398FMits5190: 這也是倉庫吧 06/13 17:58
1399FSoheee: 亂中有序? 06/13 17:58
1400Frock2345: 櫃子上也好幾隻 06/13 17:58
1401Fa910388: 這裡劇情好怪 為啥不早說ww 06/13 17:58
1402Fspfy: id組很愛邊播邊吃 不講武德 06/13 17:58
1403Fa28095448: 這個其實滿整齊的 06/13 17:58
1404Fyoonalim: 這感覺是娃娃機大戶w 06/13 17:58
1405Flinisthebest: 抓到 06/13 17:58
1406Fapple83709: Moona吃的我好餓 06/13 17:58
1407Fzseineo: 有ai跟輝夜月 06/13 17:58
1408Fcoffeedemon: XB2也是各種the 藏啊 日本遊戲劇情都這樣? 06/13 17:58
1409FReficuly: 有說這邊還是會燒吧 06/13 17:58
1410Fhasroten: 同伴回來了 也變弱了 06/13 17:58
1411Fmurderer2013: 沒有露 06/13 17:58
1412Flavendin82: 難波笑得好可愛= = 06/13 17:58
1413FAnnulene: 火燒厝還一直聊 06/13 17:58
1414FLittleJade: 背景火這樣燒很炫,不過現實會先嗆死XD 06/13 17:58
1415Fncy2000: 這是倉庫吧 06/13 17:58
1416Frxsmalllove: v粉前輩? 06/13 17:58
1417Flsd25968: 露把絆愛認錯認成空媽ww 06/13 17:58
1418Frock2345: 那啥 蟑螂屋嗎w 06/13 17:58
1419Fcj8470043: 好多絆愛.. 06/13 17:58
1420Fgread: 睡醒了 剛好難波這段也結束了 06/13 17:59
1421FMits5190: 這間的擺設很明顯是倉庫 06/13 17:59
1422Fzerobn: 那是道具蟑螂w 06/13 17:59
1423Flouispencer: 繪理是不是涼了..... 06/13 17:59
1424Fchien955401: 這裡堆成這樣有地下街的感覺了 06/13 17:59
1425Flinisthebest: 玩具蟑螂== 06/13 17:59
1426Fhasroten: 這房間好像還好 就一堆pvc而已 06/13 17:59
1427Frock2345: 哦哦XD 06/13 17:59
1428Fsome61321: 沒有露的房間 06/13 17:59
1429Feric20601: 桌子上就有一個滅蟑劑XD 06/13 17:59
1430Fmitkuchen: 蟑螂屋吧 06/13 17:59
1431Fzealotjacky: 兔子是不是還在逃避股東大會啊 06/13 17:59
1432FMits5190: 露是不是認錯人了 06/13 17:59
1433Fckwing03: 像工作室 06/13 17:59
1434Fa2936328: 露認不出大前輩要炎上了嗎(X 06/13 17:59
1435Fzseineo: 沒啊,有椅子手把跟滑鼠 06/13 17:59
1436Fmax005: 因為難波去告訴那些人才有足夠的證據開燒吧 06/13 17:59
1437Fzerobn: 阿 應該是除蟑螂的 06/13 17:59
1438Fzseineo: 雖然沒有螢幕或鍵盤 還是那個不是滑鼠www 06/13 17:59
1439Fstan1231: 這個之前有投稿過 其他人的台 06/13 17:59
1440Fparax: 只有兔子沒有露 06/13 17:59
1441Feric20601: 輝夜月跟絆愛欸 老參 06/13 17:59
1442FSeventhsky: The藏超好拖戲啊 看看閃軌用這招拖了四部曲www 06/13 17:59
1443Fwinklly: 這間怎麽很像倉庫 06/13 18:00
1444Fray10133: 開演 06/13 18:00
1445Fa2936328: AZKi開始啦 06/13 18:00
1446FSeijyaKijin: 開唱 06/13 18:00
1447Flycs0908: 有沒有人這次投稿一次tag露西亞的跟狗的 06/13 18:00
1448Fhandlin: 沒吃的垃圾 應該是工作室吧 06/13 18:00
1449FNanoDesu: Azki X MaiR!! 06/13 18:00
1450Frxsmalllove: 這麼說創軌好玩嗎? 06/13 18:00
1451Fhankhu: 可惡啊 兩個歌回都很重要啊 06/13 18:00
1452Fray10133: 品質真好 06/13 18:00
1453Fanthony2088: 創軌 內容還算OK 06/13 18:01
1454FShinn826: 兔子還打算繼續跑啊 06/13 18:01
1455Fsome61321: 露又睡在垃圾堆裡== 06/13 18:01
1456Fzerobn: 睡在垃圾裡是怎樣w 06/13 18:01
1457Fxsdferty035: 笑死 06/13 18:01
1458Frock2345: 垃圾袋w 06/13 18:01
1459Fkress: 槓..那床單.. 06/13 18:01
1460Flycs0908: 該聽moona的還是azki的呢...太難選了 06/13 18:01
1461Fcoffeedemon: 把自己放垃圾袋是什麼意思 06/13 18:01
1462Fyoonalim: 睡在垃圾袋裡www 06/13 18:01
1463Fparax: 被裝袋了 06/13 18:01
1464Fasteea: polka oruka 06/13 18:01
1465Flinisthebest: 三小wwwww 06/13 18:01
1466FLittleJade: 2.0(?)座長 06/13 18:01
1467FDelta03: 今天品質超高 06/13 18:01
1468FSoheee: 這個有點假 06/13 18:01
1469FSeijyaKijin: 座長開 06/13 18:01
1470Fa2936328: 床上堆垃圾是要睡哪裡wwww 06/13 18:01
1471Frxsmalllove: 好喔 感謝 06/13 18:01
1472Fray10133: moona刪檔 看你要不要先聽 06/13 18:01
1473Fanthony2088: 只是你要先玩 前面很拖戲的閃軌 06/13 18:01
1474Frxsmalllove: 換串囉 06/13 18:01
1475Fasteea: 座長發音刻意全黏在一起XD 06/13 18:02
1476Frxsmalllove: 閃軌非玩不可…..?我總覺得看ptt心得文就狗了QAQ 06/13 18:02
1477FNanoDesu: ====================================換串囉 06/13 18:03
1478Fppsc: 閃軌系列就普普,有種便秘感的劇情演出 06/13 18:03
1479Frxsmalllove: 收到~ 06/13 18:03
1480Fzealotjacky: 換 #1WnTSZNp (C_Chat) 06/13 18:04
1481Flycs0908: https://i.imgur.com/tlQWUDo.jpg 06/13 18:55
1482Fqwerty110: 來了嗎 06/13 20:37
1483Fmurderer2013: 雖然畫面被擋住了 但我知道35輸了 06/13 21:03
1484FFm960805: 死去 06/13 23:48
1485Fbenson1212: 晚間 06/17 20:48

C_Chat 最新熱門文章

30 Re: [情報] 咒術迴戰 153
37 c_chat 2021-07-31 23:57
41 [閒聊] 阿克婭生日快樂
53 c_chat 2021-07-31 23:34
373 [發錢] 賀! 櫻巫女 三周年
386 c_chat 2021-07-31 23:02
31 [閒聊] 會做i的戀愛漫?
56 c_chat 2021-07-31 22:58

最新文章

-1 求肉感人妻的本本
2 ac_in 2021-08-01 04:17
1 [問題] 想找一部港漫
1 c_chat 2021-08-01 03:29